Time,TemperatureF,DewpointF,PressureIn,WindDirection,WindDirectionDegrees,WindSpeedMPH,WindSpeedGustMPH,Humidity,HourlyPrecipIn,Conditions,Clouds,dailyrainin,SoftwareType,DateUTC
2013-06-30 00:00:00,64.9,62.5,29.65,NNE,32,3.0,9.0,92,0.04,,,0.24,VWS V14.01,2013-06-30 05:00:00,
2013-06-30 00:01:00,64.9,62.5,29.65,NNE,21,0.0,0.0,92,0.04,, +RA,0.00,VWS V14.01,2013-06-30 05:01:00,
2013-06-30 00:03:00,64.9,62.8,29.65,ENE,62,0.0,0.0,93,0.05,, +RA,0.01,VWS V14.01,2013-06-30 05:03:00,
2013-06-30 00:04:00,64.9,62.8,29.65,NNE,30,0.0,0.0,93,0.05,, +RA,0.01,VWS V14.01,2013-06-30 05:04:00,
2013-06-30 00:05:00,64.9,62.8,29.65,NNE,12,0.0,1.0,93,0.05,, +RA,0.01,VWS V14.01,2013-06-30 05:05:00,
2013-06-30 00:06:00,64.9,62.8,29.65,NE,42,4.0,5.0,93,0.05,, +RA,0.01,VWS V14.01,2013-06-30 05:06:00,
2013-06-30 00:08:00,64.9,62.8,29.65,NE,42,1.0,7.0,93,0.05,, +RA,0.01,VWS V14.01,2013-06-30 05:08:00,
2013-06-30 00:09:00,64.9,62.8,29.65,NE,52,2.0,7.0,93,0.05,, +RA,0.01,VWS V14.01,2013-06-30 05:09:00,
2013-06-30 00:10:00,64.9,62.8,29.65,NNE,18,1.0,7.0,93,0.05,, +RA,0.01,VWS V14.01,2013-06-30 05:10:00,
2013-06-30 00:11:00,64.9,62.8,29.65,NNE,17,0.0,7.0,93,0.05,, +RA,0.01,VWS V14.01,2013-06-30 05:11:00,
2013-06-30 00:13:00,64.9,62.8,29.65,North,349,0.0,7.0,93,0.05,, +RA,0.01,VWS V14.01,2013-06-30 05:13:00,
2013-06-30 00:14:00,64.9,62.8,29.65,NNW,338,0.0,7.0,93,0.05,, +RA,0.01,VWS V14.01,2013-06-30 05:14:00,
2013-06-30 00:15:00,64.9,62.8,29.65,NNW,347,0.0,7.0,93,0.05,, +RA,0.01,VWS V14.01,2013-06-30 05:15:00,
2013-06-30 00:16:00,64.9,62.8,29.65,NNE,13,2.0,7.0,93,0.05,, +RA,0.01,VWS V14.01,2013-06-30 05:16:00,
2013-06-30 00:18:00,64.7,62.6,29.65,NNE,12,3.0,10.0,93,0.06,, +RA,0.02,VWS V14.01,2013-06-30 05:18:00,
2013-06-30 00:19:00,64.7,62.6,29.65,NW,312,1.0,10.0,93,0.06,, +RA,0.02,VWS V14.01,2013-06-30 05:19:00,
2013-06-30 00:20:00,64.7,62.6,29.65,NNW,338,0.0,10.0,93,0.06,, +RA,0.02,VWS V14.01,2013-06-30 05:20:00,
2013-06-30 00:22:00,64.7,62.6,29.65,NNE,19,0.0,10.0,93,0.06,, +RA,0.02,VWS V14.01,2013-06-30 05:22:00,
2013-06-30 00:23:00,64.7,62.6,29.65,North,355,5.0,10.0,93,0.06,, +RA,0.02,VWS V14.01,2013-06-30 05:23:00,
2013-06-30 00:24:00,64.7,62.6,29.65,NNW,333,0.0,10.0,93,0.06,, +RA,0.02,VWS V14.01,2013-06-30 05:24:00,
2013-06-30 00:25:00,64.7,62.6,29.65,NNE,15,0.0,10.0,93,0.06,, +RA,0.02,VWS V14.01,2013-06-30 05:25:00,
2013-06-30 00:26:00,64.7,62.6,29.65,North,350,7.0,10.0,93,0.06,, +RA,0.02,VWS V14.01,2013-06-30 05:26:00,
2013-06-30 00:27:00,64.7,62.6,29.65,North,355,2.0,10.0,93,0.06,, +RA,0.02,VWS V14.01,2013-06-30 05:27:00,
2013-06-30 00:28:00,64.7,62.6,29.65,North,360,0.0,10.0,93,0.06,, +RA,0.02,VWS V14.01,2013-06-30 05:28:00,
2013-06-30 00:30:00,64.7,62.6,29.66,NW,308,0.0,10.0,93,0.06,, +RA,0.02,VWS V14.01,2013-06-30 05:30:00,
2013-06-30 00:31:00,64.7,62.6,29.66,NNW,339,0.0,0.0,93,0.03,, +RA,0.02,VWS V14.01,2013-06-30 05:31:00,
2013-06-30 00:32:00,64.7,62.6,29.66,North,355,0.0,4.0,93,0.03,, +RA,0.02,VWS V14.01,2013-06-30 05:32:00,
2013-06-30 00:33:00,64.7,62.6,29.66,NNW,341,0.0,4.0,93,0.03,, +RA,0.02,VWS V14.01,2013-06-30 05:33:00,
2013-06-30 00:35:00,64.7,62.6,29.66,NW,325,0.0,4.0,93,0.03,, +RA,0.02,VWS V14.01,2013-06-30 05:35:00,
2013-06-30 00:36:00,64.7,62.6,29.66,NW,325,0.0,4.0,93,0.03,, +RA,0.02,VWS V14.01,2013-06-30 05:36:00,
2013-06-30 00:38:00,64.7,62.6,29.66,NW,319,0.0,4.0,93,0.03,, +RA,0.02,VWS V14.01,2013-06-30 05:38:00,
2013-06-30 00:40:00,64.7,62.6,29.66,NW,326,0.0,4.0,93,0.03,, +RA,0.02,VWS V14.01,2013-06-30 05:40:00,
2013-06-30 00:41:00,64.7,62.6,29.66,NE,40,0.0,4.0,93,0.03,, +RA,0.02,VWS V14.01,2013-06-30 05:41:00,
2013-06-30 00:43:00,64.6,62.5,29.66,NW,326,0.0,4.0,93,0.03,, +RA,0.02,VWS V14.01,2013-06-30 05:43:00,
2013-06-30 00:45:00,64.6,62.5,29.66,North,355,0.0,5.0,93,0.03,,OVC080,0.02,VWS V14.01,2013-06-30 05:45:00,
2013-06-30 00:47:00,64.6,62.5,29.66,NNW,333,0.0,5.0,93,0.04,,OVC080,0.03,VWS V14.01,2013-06-30 05:47:00,
2013-06-30 00:48:00,64.6,62.5,29.66,North,351,0.0,5.0,93,0.04,,OVC080,0.03,VWS V14.01,2013-06-30 05:48:00,
2013-06-30 00:50:00,64.6,62.8,29.66,NW,323,0.0,5.0,94,0.04,,OVC080,0.03,VWS V14.01,2013-06-30 05:50:00,
2013-06-30 00:52:00,64.6,62.8,29.66,NNE,28,0.0,5.0,94,0.04,,OVC080,0.03,VWS V14.01,2013-06-30 05:52:00,
2013-06-30 00:53:00,64.6,62.8,29.66,NNE,19,3.0,5.0,94,0.04,,OVC080,0.03,VWS V14.01,2013-06-30 05:53:00,
2013-06-30 00:55:00,64.6,62.8,29.66,North,355,0.0,5.0,94,0.04,,OVC080,0.03,VWS V14.01,2013-06-30 05:55:00,
2013-06-30 00:56:00,64.6,62.8,29.66,North,355,0.0,5.0,94,0.04,,OVC080,0.03,VWS V14.01,2013-06-30 05:56:00,
2013-06-30 00:57:00,64.6,62.8,29.66,NE,44,0.0,5.0,94,0.04,,OVC080,0.03,VWS V14.01,2013-06-30 05:57:00,
2013-06-30 00:58:00,64.6,62.8,29.66,NNE,13,0.0,5.0,94,0.04,,OVC080,0.03,VWS V14.01,2013-06-30 05:58:00,
2013-06-30 01:00:00,64.6,62.8,29.66,NNE,12,0.0,5.0,94,0.04,,OVC080,0.03,VWS V14.01,2013-06-30 06:00:00,
2013-06-30 01:01:00,64.7,62.9,29.66,NNW,335,0.0,0.0,94,0.03,,OVC024,0.03,VWS V14.01,2013-06-30 06:01:00,
2013-06-30 01:02:00,64.7,62.9,29.66,NW,325,0.0,0.0,94,0.03,,OVC024,0.03,VWS V14.01,2013-06-30 06:02:00,
2013-06-30 01:03:00,64.7,62.9,29.66,NNW,327,0.0,1.0,94,0.03,,OVC024,0.03,VWS V14.01,2013-06-30 06:03:00,
2013-06-30 01:04:00,64.7,62.9,29.66,NNW,327,0.0,1.0,94,0.03,,OVC024,0.03,VWS V14.01,2013-06-30 06:04:00,
2013-06-30 01:06:00,64.7,62.9,29.66,NNW,333,0.0,1.0,94,0.03,,OVC024,0.03,VWS V14.01,2013-06-30 06:06:00,
2013-06-30 01:07:00,64.7,62.9,29.66,NNW,329,0.0,1.0,94,0.03,,OVC024,0.03,VWS V14.01,2013-06-30 06:07:00,
2013-06-30 01:09:00,64.7,62.9,29.66,NW,321,0.0,1.0,94,0.03,,OVC024,0.03,VWS V14.01,2013-06-30 06:09:00,
2013-06-30 01:11:00,64.7,62.9,29.66,North,355,0.0,1.0,94,0.03,,OVC024,0.03,VWS V14.01,2013-06-30 06:11:00,
2013-06-30 01:12:00,64.7,62.9,29.66,NNW,335,0.0,1.0,94,0.03,,OVC024,0.03,VWS V14.01,2013-06-30 06:12:00,
2013-06-30 01:14:00,64.7,62.9,29.66,NNW,337,0.0,1.0,94,0.03,,OVC024,0.03,VWS V14.01,2013-06-30 06:14:00,
2013-06-30 01:16:00,64.7,62.9,29.66,North,355,0.0,1.0,94,0.03,,OVC080,0.03,VWS V14.01,2013-06-30 06:16:00,
2013-06-30 01:18:00,64.7,62.9,29.66,NNE,15,0.0,1.0,94,0.03,,OVC080,0.03,VWS V14.01,2013-06-30 06:18:00,
2013-06-30 01:19:00,64.7,62.9,29.66,North,355,0.0,1.0,94,0.03,,OVC080,0.03,VWS V14.01,2013-06-30 06:19:00,
2013-06-30 01:21:00,64.7,62.9,29.66,NNW,336,0.0,2.0,94,0.03,,OVC080,0.03,VWS V14.01,2013-06-30 06:21:00,
2013-06-30 01:23:00,64.7,62.9,29.66,NW,321,0.0,2.0,94,0.03,,OVC080,0.03,VWS V14.01,2013-06-30 06:23:00,
2013-06-30 01:24:00,64.7,62.9,29.66,NW,321,0.0,2.0,94,0.03,,OVC080,0.03,VWS V14.01,2013-06-30 06:24:00,
2013-06-30 01:26:00,64.7,62.9,29.66,NNE,15,0.0,5.0,94,0.03,,OVC080,0.03,VWS V14.01,2013-06-30 06:26:00,
2013-06-30 01:28:00,64.7,62.9,29.66,NNE,15,0.0,5.0,94,0.03,,OVC080,0.03,VWS V14.01,2013-06-30 06:28:00,
2013-06-30 01:29:00,64.7,62.9,29.66,NNE,13,0.0,5.0,94,0.03,,OVC080,0.03,VWS V14.01,2013-06-30 06:29:00,
2013-06-30 01:30:00,64.7,62.9,29.66,NNE,24,5.0,6.0,94,0.03,,,0.03,VWS V14.01,2013-06-30 06:30:00,
2013-06-30 01:31:00,64.7,62.9,29.66,North,5,2.0,5.0,94,0.01,,OVC080,0.03,VWS V14.01,2013-06-30 06:31:00,
2013-06-30 01:33:00,64.7,62.9,29.66,NNW,338,0.0,5.0,94,0.01,,OVC080,0.03,VWS V14.01,2013-06-30 06:33:00,
2013-06-30 01:34:00,64.7,62.9,29.66,NNW,342,0.0,5.0,94,0.01,,OVC080,0.03,VWS V14.01,2013-06-30 06:34:00,
2013-06-30 01:35:00,64.7,62.9,29.66,NNW,342,0.0,5.0,94,0.01,,OVC080,0.03,VWS V14.01,2013-06-30 06:35:00,
2013-06-30 01:36:00,64.7,62.9,29.66,NNW,345,0.0,5.0,94,0.01,,OVC080,0.03,VWS V14.01,2013-06-30 06:36:00,
2013-06-30 01:39:00,64.7,62.9,29.66,NNW,345,0.0,5.0,94,0.01,,OVC080,0.03,VWS V14.01,2013-06-30 06:39:00,
2013-06-30 01:40:00,64.7,62.9,29.66,North,355,0.0,5.0,94,0.01,,OVC080,0.03,VWS V14.01,2013-06-30 06:40:00,
2013-06-30 01:41:00,64.7,62.9,29.66,NW,319,1.0,5.0,94,0.01,,OVC080,0.03,VWS V14.01,2013-06-30 06:41:00,
2013-06-30 01:44:00,64.7,62.9,29.66,North,355,0.0,5.0,94,0.01,,OVC080,0.03,VWS V14.01,2013-06-30 06:44:00,
2013-06-30 01:45:00,64.7,62.9,29.66,NW,316,0.0,5.0,94,0.01,,OVC080,0.03,VWS V14.01,2013-06-30 06:45:00,
2013-06-30 01:46:00,64.7,62.9,29.66,NW,311,0.0,5.0,94,0.01,,OVC026,0.03,VWS V14.01,2013-06-30 06:46:00,
2013-06-30 01:49:00,64.7,62.9,29.66,NW,325,0.0,5.0,94,0.01,,OVC026,0.03,VWS V14.01,2013-06-30 06:49:00,
2013-06-30 01:50:00,64.7,62.9,29.66,NW,323,0.0,5.0,94,0.01,,OVC026,0.03,VWS V14.01,2013-06-30 06:50:00,
2013-06-30 01:51:00,64.7,62.9,29.66,NW,321,0.0,5.0,94,0.01,,OVC026,0.03,VWS V14.01,2013-06-30 06:51:00,
2013-06-30 01:54:00,64.7,62.9,29.66,NW,305,0.0,5.0,94,0.01,,OVC026,0.03,VWS V14.01,2013-06-30 06:54:00,
2013-06-30 01:55:00,64.7,62.9,29.66,North,349,0.0,5.0,94,0.01,,OVC026,0.03,VWS V14.01,2013-06-30 06:55:00,
2013-06-30 01:56:00,64.7,62.9,29.66,NW,325,0.0,5.0,94,0.01,,OVC026,0.03,VWS V14.01,2013-06-30 06:56:00,
2013-06-30 01:59:00,64.6,62.8,29.66,NW,320,0.0,5.0,94,0.01,,OVC026,0.03,VWS V14.01,2013-06-30 06:59:00,
2013-06-30 02:00:00,64.6,62.8,29.66,North,9,0.0,5.0,94,0.01,,OVC026,0.03,VWS V14.01,2013-06-30 07:00:00,
2013-06-30 02:01:00,64.6,62.8,29.66,NNW,333,0.0,2.0,94,0.00,,OVC026,0.03,VWS V14.01,2013-06-30 07:01:00,
2013-06-30 02:04:00,64.6,62.8,29.66,North,355,0.0,5.0,94,0.00,,OVC026,0.03,VWS V14.01,2013-06-30 07:04:00,
2013-06-30 02:05:00,64.6,62.8,29.66,North,5,0.0,5.0,94,0.00,,OVC026,0.03,VWS V14.01,2013-06-30 07:05:00,
2013-06-30 02:08:00,64.6,62.8,29.66,NW,313,0.0,5.0,94,0.00,,OVC026,0.03,VWS V14.01,2013-06-30 07:08:00,
2013-06-30 02:10:00,64.6,62.8,29.66,NNW,330,2.0,6.0,94,0.00,,OVC026,0.03,VWS V14.01,2013-06-30 07:10:00,
2013-06-30 02:11:00,64.4,62.6,29.66,NW,312,0.0,6.0,94,0.00,,OVC026,0.03,VWS V14.01,2013-06-30 07:11:00,
2013-06-30 02:13:00,64.4,62.6,29.66,NNW,348,0.0,6.0,94,0.00,,OVC026,0.03,VWS V14.01,2013-06-30 07:13:00,
2013-06-30 02:15:00,64.4,62.6,29.67,North,355,0.0,6.0,94,0.00,,OVC026,0.03,VWS V14.01,2013-06-30 07:15:00,
2013-06-30 02:16:00,64.4,62.6,29.67,North,350,0.0,6.0,94,0.00,,OVC026,0.03,VWS V14.01,2013-06-30 07:16:00,
2013-06-30 02:19:00,64.4,62.6,29.67,NNW,329,0.0,6.0,94,0.00,,OVC026,0.03,VWS V14.01,2013-06-30 07:19:00,
2013-06-30 02:20:00,64.4,62.6,29.67,NNW,329,0.0,6.0,94,0.00,,OVC026,0.03,VWS V14.01,2013-06-30 07:20:00,
2013-06-30 02:21:00,64.4,62.6,29.67,NNW,345,0.0,6.0,94,0.00,,OVC026,0.03,VWS V14.01,2013-06-30 07:21:00,
2013-06-30 02:24:00,64.4,62.6,29.67,NW,314,1.0,6.0,94,0.00,,OVC026,0.03,VWS V14.01,2013-06-30 07:24:00,
2013-06-30 02:25:00,64.4,62.6,29.67,WNW,302,0.0,6.0,94,0.00,,OVC026,0.03,VWS V14.01,2013-06-30 07:25:00,
2013-06-30 02:26:00,64.4,62.6,29.67,NW,313,0.0,6.0,94,0.00,,OVC026,0.03,VWS V14.01,2013-06-30 07:26:00,
2013-06-30 02:29:00,64.4,62.6,29.67,NW,313,4.0,7.0,94,0.00,,OVC026,0.03,VWS V14.01,2013-06-30 07:29:00,
2013-06-30 02:30:00,64.4,62.6,29.67,NW,319,0.0,7.0,94,0.00,,OVC026,0.03,VWS V14.01,2013-06-30 07:30:00,
2013-06-30 02:31:00,64.4,62.6,29.67,NW,313,0.0,5.0,94,0.00,,OVC026,0.03,VWS V14.01,2013-06-30 07:31:00,
2013-06-30 02:34:00,64.2,62.4,29.67,North,350,0.0,5.0,94,0.00,,OVC026,0.03,VWS V14.01,2013-06-30 07:34:00,
2013-06-30 02:35:00,64.2,62.4,29.67,NNW,335,0.0,5.0,94,0.00,,OVC026,0.03,VWS V14.01,2013-06-30 07:35:00,
2013-06-30 02:36:00,64.2,62.4,29.67,NW,313,0.0,5.0,94,0.00,,OVC026,0.03,VWS V14.01,2013-06-30 07:36:00,
2013-06-30 02:37:00,64.2,62.4,29.67,NW,308,0.0,5.0,94,0.00,,OVC026,0.03,VWS V14.01,2013-06-30 07:37:00,
2013-06-30 02:39:00,64.2,62.4,29.67,NW,317,0.0,6.0,94,0.00,,OVC026,0.03,VWS V14.01,2013-06-30 07:39:00,
2013-06-30 02:40:00,64.2,62.4,29.67,NW,313,3.0,6.0,94,0.00,,OVC026,0.03,VWS V14.01,2013-06-30 07:40:00,
2013-06-30 02:41:00,64.2,62.4,29.67,North,5,0.0,6.0,94,0.00,,OVC026,0.03,VWS V14.01,2013-06-30 07:41:00,
2013-06-30 02:42:00,64.2,62.4,29.67,North,349,1.0,6.0,94,0.00,,OVC026,0.03,VWS V14.01,2013-06-30 07:42:00,
2013-06-30 02:44:00,64.2,62.4,29.67,NW,321,2.0,6.0,94,0.00,,OVC026,0.03,VWS V14.01,2013-06-30 07:44:00,
2013-06-30 02:45:00,64.2,62.4,29.67,NNW,333,0.0,6.0,94,0.00,,OVC018,0.03,VWS V14.01,2013-06-30 07:45:00,
2013-06-30 02:46:00,64.2,62.4,29.67,NW,314,4.0,6.0,94,0.00,,OVC018,0.03,VWS V14.01,2013-06-30 07:46:00,
2013-06-30 02:47:00,64.2,62.4,29.67,NW,313,0.0,10.0,94,0.00,,OVC018,0.03,VWS V14.01,2013-06-30 07:47:00,
2013-06-30 02:50:00,64.1,62.3,29.67,NW,304,0.0,10.0,94,0.00,,OVC018,0.03,VWS V14.01,2013-06-30 07:50:00,
2013-06-30 02:51:00,64.1,62.3,29.67,NW,319,3.0,10.0,94,0.00,,OVC018,0.03,VWS V14.01,2013-06-30 07:51:00,
2013-06-30 02:52:00,64.1,62.3,29.67,North,355,5.0,10.0,94,0.00,,OVC018,0.03,VWS V14.01,2013-06-30 07:52:00,
2013-06-30 02:55:00,63.9,61.8,29.67,NNE,30,0.0,10.0,93,0.00,,OVC018,0.03,VWS V14.01,2013-06-30 07:55:00,
2013-06-30 02:56:00,63.9,61.8,29.67,NW,313,5.0,10.0,93,0.00,,OVC018,0.03,VWS V14.01,2013-06-30 07:56:00,
2013-06-30 02:57:00,63.9,61.8,29.67,NNW,333,0.0,10.0,93,0.00,,OVC018,0.03,VWS V14.01,2013-06-30 07:57:00,
2013-06-30 03:00:00,63.9,61.8,29.67,NNW,338,0.0,10.0,93,0.00,,OVC023,0.03,VWS V14.01,2013-06-30 08:00:00,
2013-06-30 03:01:00,63.9,61.8,29.67,NW,325,0.0,3.0,93,0.00,,OVC023,0.03,VWS V14.01,2013-06-30 08:01:00,
2013-06-30 03:02:00,63.8,61.7,29.67,NNW,343,0.0,4.0,93,0.00,,OVC023,0.03,VWS V14.01,2013-06-30 08:02:00,
2013-06-30 03:05:00,63.8,61.7,29.67,NNW,331,0.0,4.0,93,0.00,,OVC023,0.03,VWS V14.01,2013-06-30 08:05:00,
2013-06-30 03:06:00,63.8,61.7,29.67,NNW,329,0.0,4.0,93,0.00,,OVC023,0.03,VWS V14.01,2013-06-30 08:06:00,
2013-06-30 03:08:00,63.8,61.7,29.67,NNW,328,0.0,4.0,93,0.00,,OVC023,0.03,VWS V14.01,2013-06-30 08:08:00,
2013-06-30 03:10:00,63.8,61.4,29.67,NW,321,0.0,6.0,92,0.00,,OVC023,0.03,VWS V14.01,2013-06-30 08:10:00,
2013-06-30 03:11:00,63.8,61.4,29.67,NW,309,2.0,6.0,92,0.00,,OVC023,0.03,VWS V14.01,2013-06-30 08:11:00,
2013-06-30 03:13:00,63.8,61.4,29.67,NNW,336,0.0,6.0,92,0.00,,OVC023,0.03,VWS V14.01,2013-06-30 08:13:00,
2013-06-30 03:16:00,63.8,61.4,29.68,NW,311,0.0,6.0,92,0.00,,OVC018,0.03,VWS V14.01,2013-06-30 08:16:00,
2013-06-30 03:18:00,63.8,61.4,29.68,NNW,347,0.0,6.0,92,0.00,,OVC018,0.03,VWS V14.01,2013-06-30 08:18:00,
2013-06-30 03:21:00,63.8,61.4,29.68,NW,325,0.0,6.0,92,0.00,,OVC018,0.03,VWS V14.01,2013-06-30 08:21:00,
2013-06-30 03:23:00,63.8,61.4,29.68,NW,324,0.0,6.0,92,0.00,,OVC018,0.03,VWS V14.01,2013-06-30 08:23:00,
2013-06-30 03:26:00,63.8,61.4,29.68,North,5,0.0,6.0,92,0.00,,OVC018,0.03,VWS V14.01,2013-06-30 08:26:00,
2013-06-30 03:28:00,63.6,61.2,29.68,NW,326,5.0,7.0,92,0.00,,OVC018,0.03,VWS V14.01,2013-06-30 08:28:00,
2013-06-30 03:30:00,63.6,61.2,29.68,North,5,3.0,7.0,92,0.00,,,0.03,VWS V14.01,2013-06-30 08:30:00,
2013-06-30 03:31:00,63.6,61.2,29.68,NNW,348,0.0,3.0,92,0.00,,OVC018,0.03,VWS V14.01,2013-06-30 08:31:00,
2013-06-30 03:32:00,63.6,61.2,29.68,NW,319,2.0,3.0,92,0.00,,OVC018,0.03,VWS V14.01,2013-06-30 08:32:00,
2013-06-30 03:33:00,63.6,61.2,29.68,North,355,0.0,6.0,92,0.00,,OVC018,0.03,VWS V14.01,2013-06-30 08:33:00,
2013-06-30 03:34:00,63.6,61.2,29.68,NW,309,0.0,6.0,92,0.00,,OVC018,0.03,VWS V14.01,2013-06-30 08:34:00,
2013-06-30 03:36:00,63.6,61.2,29.68,NE,36,0.0,6.0,92,0.00,,OVC018,0.03,VWS V14.01,2013-06-30 08:36:00,
2013-06-30 03:37:00,63.6,61.2,29.68,North,9,0.0,6.0,92,0.00,,OVC018,0.03,VWS V14.01,2013-06-30 08:37:00,
2013-06-30 03:38:00,63.6,61.2,29.68,NW,306,6.0,9.0,92,0.00,,OVC018,0.03,VWS V14.01,2013-06-30 08:38:00,
2013-06-30 03:39:00,63.6,61.2,29.68,North,360,5.0,9.0,92,0.00,,OVC018,0.03,VWS V14.01,2013-06-30 08:39:00,
2013-06-30 03:42:00,63.3,60.6,29.68,NW,320,0.0,9.0,91,0.00,,OVC018,0.03,VWS V14.01,2013-06-30 08:42:00,
2013-06-30 03:43:00,63.3,60.6,29.68,North,11,0.0,9.0,91,0.00,,OVC018,0.03,VWS V14.01,2013-06-30 08:43:00,
2013-06-30 03:44:00,63.3,60.6,29.68,NNW,333,0.0,9.0,91,0.00,,OVC018,0.03,VWS V14.01,2013-06-30 08:44:00,
2013-06-30 03:47:00,63.1,60.1,29.69,NNW,332,0.0,9.0,90,0.00,,OVC025,0.03,VWS V14.01,2013-06-30 08:47:00,
2013-06-30 03:48:00,63.0,59.7,29.69,NW,306,0.0,9.0,89,0.00,,OVC025,0.03,VWS V14.01,2013-06-30 08:48:00,
2013-06-30 03:49:00,63.0,59.7,29.69,WNW,302,0.0,9.0,89,0.00,,OVC025,0.03,VWS V14.01,2013-06-30 08:49:00,
2013-06-30 03:52:00,63.0,59.7,29.69,NW,326,0.0,9.0,89,0.00,,OVC025,0.03,VWS V14.01,2013-06-30 08:52:00,
2013-06-30 03:53:00,63.0,59.4,29.69,North,5,0.0,9.0,88,0.00,,OVC025,0.03,VWS V14.01,2013-06-30 08:53:00,
2013-06-30 03:54:00,63.0,59.4,29.69,NNE,15,0.0,9.0,88,0.00,,OVC025,0.03,VWS V14.01,2013-06-30 08:54:00,
2013-06-30 03:57:00,62.8,59.2,29.69,NNE,19,4.0,9.0,88,0.00,,OVC025,0.03,VWS V14.01,2013-06-30 08:57:00,
2013-06-30 03:58:00,62.8,59.2,29.69,NW,314,3.0,9.0,88,0.00,,OVC025,0.03,VWS V14.01,2013-06-30 08:58:00,
2013-06-30 03:59:00,62.8,59.2,29.69,NW,321,4.0,9.0,88,0.00,,OVC025,0.03,VWS V14.01,2013-06-30 08:59:00,
2013-06-30 04:00:00,62.6,58.7,29.69,NW,324,0.0,9.0,87,0.00,,,0.03,VWS V14.01,2013-06-30 09:00:00,
2013-06-30 04:02:00,62.6,58.7,29.69,WNW,294,0.0,1.0,87,0.00,,OVC020,0.03,VWS V14.01,2013-06-30 09:02:00,
2013-06-30 04:03:00,62.6,58.7,29.69,NNW,341,0.0,1.0,87,0.00,,OVC020,0.03,VWS V14.01,2013-06-30 09:03:00,
2013-06-30 04:04:00,62.6,58.7,29.69,NW,324,1.0,9.0,87,0.00,,OVC020,0.03,VWS V14.01,2013-06-30 09:04:00,
2013-06-30 04:05:00,62.6,58.7,29.69,NNE,15,1.0,9.0,87,0.00,,OVC020,0.03,VWS V14.01,2013-06-30 09:05:00,
2013-06-30 04:07:00,62.6,58.4,29.69,North,360,0.0,9.0,86,0.00,,OVC020,0.03,VWS V14.01,2013-06-30 09:07:00,
2013-06-30 04:08:00,62.6,58.4,29.69,North,360,1.0,9.0,86,0.00,,OVC020,0.03,VWS V14.01,2013-06-30 09:08:00,
2013-06-30 04:09:00,62.6,58.4,29.69,NW,311,2.0,9.0,86,0.00,,OVC020,0.03,VWS V14.01,2013-06-30 09:09:00,
2013-06-30 04:10:00,62.6,58.4,29.69,NNW,338,0.0,9.0,86,0.00,,OVC020,0.03,VWS V14.01,2013-06-30 09:10:00,
2013-06-30 04:12:00,62.6,58.4,29.69,NW,309,0.0,9.0,86,0.00,,OVC020,0.03,VWS V14.01,2013-06-30 09:12:00,
2013-06-30 04:13:00,62.6,58.4,29.69,NW,309,0.0,9.0,86,0.00,,OVC020,0.03,VWS V14.01,2013-06-30 09:13:00,
2013-06-30 04:14:00,62.6,58.4,29.69,NW,314,0.0,9.0,86,0.00,,OVC020,0.03,VWS V14.01,2013-06-30 09:14:00,
2013-06-30 04:15:00,62.6,58.4,29.69,NW,314,0.0,9.0,86,0.00,,OVC020,0.03,VWS V14.01,2013-06-30 09:15:00,
2013-06-30 04:18:00,62.6,58.7,29.69,NNW,336,4.0,9.0,87,0.00,,OVC025,0.03,VWS V14.01,2013-06-30 09:18:00,
2013-06-30 04:19:00,62.5,58.6,29.69,NNW,346,0.0,9.0,87,0.00,,OVC025,0.03,VWS V14.01,2013-06-30 09:19:00,
2013-06-30 04:20:00,62.5,58.6,29.69,NNW,338,1.0,9.0,87,0.00,,OVC025,0.03,VWS V14.01,2013-06-30 09:20:00,
2013-06-30 04:23:00,62.6,58.7,29.69,NNW,333,0.0,9.0,87,0.00,,OVC025,0.03,VWS V14.01,2013-06-30 09:23:00,
2013-06-30 04:24:00,62.6,58.7,29.69,NW,315,0.0,9.0,87,0.00,,OVC025,0.03,VWS V14.01,2013-06-30 09:24:00,
2013-06-30 04:25:00,62.6,58.7,29.69,NW,321,0.0,9.0,87,0.00,,OVC025,0.03,VWS V14.01,2013-06-30 09:25:00,
2013-06-30 04:28:00,62.5,58.6,29.69,NNW,333,0.0,9.0,87,0.00,,OVC025,0.03,VWS V14.01,2013-06-30 09:28:00,
2013-06-30 04:29:00,62.5,58.6,29.69,NW,316,0.0,9.0,87,0.00,,OVC025,0.03,VWS V14.01,2013-06-30 09:29:00,
2013-06-30 04:30:00,62.5,58.6,29.69,NW,319,0.0,9.0,87,0.00,,OVC025,0.03,VWS V14.01,2013-06-30 09:30:00,
2013-06-30 04:33:00,62.5,58.6,29.69,WNW,295,2.0,4.0,87,0.00,,OVC025,0.03,VWS V14.01,2013-06-30 09:33:00,
2013-06-30 04:34:00,62.5,58.6,29.69,NW,323,3.0,4.0,87,0.00,,OVC025,0.03,VWS V14.01,2013-06-30 09:34:00,
2013-06-30 04:35:00,62.5,58.6,29.69,NW,323,0.0,4.0,87,0.00,,OVC025,0.03,VWS V14.01,2013-06-30 09:35:00,
2013-06-30 04:39:00,62.5,58.6,29.69,NW,312,0.0,4.0,87,0.00,,OVC025,0.03,VWS V14.01,2013-06-30 09:39:00,
2013-06-30 04:40:00,62.5,58.9,29.69,NNW,327,1.0,4.0,88,0.00,,OVC025,0.03,VWS V14.01,2013-06-30 09:40:00,
2013-06-30 04:44:00,62.5,58.6,29.69,NW,323,3.0,4.0,87,0.00,,OVC025,0.03,VWS V14.01,2013-06-30 09:44:00,
2013-06-30 04:45:00,62.3,58.4,29.69,NW,325,0.0,5.0,87,0.00,,OVC025,0.03,VWS V14.01,2013-06-30 09:45:00,
2013-06-30 04:49:00,62.5,58.6,29.69,NW,309,0.0,5.0,87,0.00,,OVC022,0.03,VWS V14.01,2013-06-30 09:49:00,
2013-06-30 04:50:00,62.5,58.6,29.69,NW,321,0.0,5.0,87,0.00,,OVC022,0.03,VWS V14.01,2013-06-30 09:50:00,
2013-06-30 04:54:00,62.5,58.6,29.69,NW,319,0.0,5.0,87,0.00,,OVC022,0.03,VWS V14.01,2013-06-30 09:54:00,
2013-06-30 04:55:00,62.5,58.6,29.69,NW,320,0.0,5.0,87,0.00,,OVC022,0.03,VWS V14.01,2013-06-30 09:55:00,
2013-06-30 04:59:00,62.5,58.6,29.69,NW,310,0.0,5.0,87,0.00,,OVC022,0.03,VWS V14.01,2013-06-30 09:59:00,
2013-06-30 05:00:00,62.5,58.6,29.69,NNW,346,0.0,5.0,87,0.00,,OVC022,0.03,VWS V14.01,2013-06-30 10:00:00,
2013-06-30 05:04:00,62.5,58.6,29.69,NW,311,0.0,3.0,87,0.00,,OVC022,0.03,VWS V14.01,2013-06-30 10:04:00,
2013-06-30 05:05:00,62.5,58.6,29.69,NW,311,0.0,3.0,87,0.00,,OVC022,0.03,VWS V14.01,2013-06-30 10:05:00,
2013-06-30 05:10:00,62.5,58.6,29.69,North,355,0.0,3.0,87,0.00,,OVC022,0.03,VWS V14.01,2013-06-30 10:10:00,
2013-06-30 05:15:00,62.5,58.6,29.70,NW,312,0.0,3.0,87,0.00,,OVC022,0.03,VWS V14.01,2013-06-30 10:15:00,
2013-06-30 05:16:00,62.5,58.6,29.70,NW,311,0.0,3.0,87,0.00,,OVC022,0.03,VWS V14.01,2013-06-30 10:16:00,
2013-06-30 05:20:00,62.5,58.6,29.70,NNW,331,0.0,3.0,87,0.00,,OVC022,0.03,VWS V14.01,2013-06-30 10:20:00,
2013-06-30 05:21:00,62.5,58.6,29.70,NNW,328,0.0,3.0,87,0.00,,OVC022,0.03,VWS V14.01,2013-06-30 10:21:00,
2013-06-30 05:25:00,62.5,58.9,29.70,NNW,342,0.0,6.0,88,0.00,,OVC022,0.03,VWS V14.01,2013-06-30 10:25:00,
2013-06-30 05:26:00,62.5,58.9,29.70,North,355,0.0,6.0,88,0.00,,OVC022,0.03,VWS V14.01,2013-06-30 10:26:00,
2013-06-30 05:30:00,62.5,58.9,29.70,NNW,339,0.0,6.0,88,0.00,,OVC022,0.03,VWS V14.01,2013-06-30 10:30:00,
2013-06-30 05:31:00,62.5,58.9,29.70,NNW,338,0.0,0.0,88,0.00,,OVC022,0.03,VWS V14.01,2013-06-30 10:31:00,
2013-06-30 05:35:00,62.5,58.9,29.70,NW,325,0.0,5.0,88,0.00,,OVC022,0.03,VWS V14.01,2013-06-30 10:35:00,
2013-06-30 05:36:00,62.5,58.9,29.70,NW,325,0.0,5.0,88,0.00,,OVC022,0.03,VWS V14.01,2013-06-30 10:36:00,
2013-06-30 05:40:00,62.5,58.9,29.70,NW,322,0.0,5.0,88,0.00,,OVC022,0.03,VWS V14.01,2013-06-30 10:40:00,
2013-06-30 05:41:00,62.5,58.9,29.70,NW,322,0.0,5.0,88,0.00,,OVC022,0.03,VWS V14.01,2013-06-30 10:41:00,
2013-06-30 05:45:00,62.5,58.9,29.70,NNW,330,0.0,5.0,88,0.00,,OVC029,0.03,VWS V14.01,2013-06-30 10:45:00,
2013-06-30 05:46:00,62.5,58.9,29.70,NNW,331,0.0,5.0,88,0.00,,OVC029,0.03,VWS V14.01,2013-06-30 10:46:00,
2013-06-30 05:51:00,62.5,58.9,29.70,NNW,331,2.0,6.0,88,0.00,,OVC029,0.03,VWS V14.01,2013-06-30 10:51:00,
2013-06-30 05:56:00,62.5,58.9,29.70,NW,326,0.0,6.0,88,0.00,,OVC029,0.03,VWS V14.01,2013-06-30 10:56:00,
2013-06-30 05:57:00,62.5,58.9,29.70,NW,316,3.0,6.0,88,0.00,,OVC029,0.03,VWS V14.01,2013-06-30 10:57:00,
2013-06-30 06:00:00,62.5,58.9,29.71,NW,323,0.0,6.0,88,0.00,,,0.03,VWS V14.01,2013-06-30 11:00:00,
2013-06-30 06:01:00,62.5,58.9,29.71,NW,323,0.0,0.0,88,0.00,,OVC020,0.03,VWS V14.01,2013-06-30 11:01:00,
2013-06-30 06:02:00,62.5,58.9,29.71,WNW,299,0.0,0.0,88,0.00,,OVC020,0.03,VWS V14.01,2013-06-30 11:02:00,
2013-06-30 06:06:00,62.5,58.9,29.71,NNW,328,0.0,6.0,88,0.00,,OVC020,0.03,VWS V14.01,2013-06-30 11:06:00,
2013-06-30 06:07:00,62.5,58.9,29.71,NW,322,0.0,6.0,88,0.00,,OVC020,0.03,VWS V14.01,2013-06-30 11:07:00,
2013-06-30 06:11:00,62.5,58.9,29.71,NNW,335,0.0,6.0,88,0.00,,OVC020,0.03,VWS V14.01,2013-06-30 11:11:00,
2013-06-30 06:12:00,62.5,58.9,29.71,NNW,333,0.0,6.0,88,0.00,,OVC020,0.03,VWS V14.01,2013-06-30 11:12:00,
2013-06-30 06:17:00,62.5,58.9,29.72,NW,321,0.0,6.0,88,0.00,,OVC026,0.03,VWS V14.01,2013-06-30 11:17:00,
2013-06-30 06:22:00,62.5,58.9,29.72,NW,323,0.0,6.0,88,0.00,,OVC026,0.03,VWS V14.01,2013-06-30 11:22:00,
2013-06-30 06:27:00,62.6,58.7,29.72,NNW,340,0.0,6.0,87,0.00,,OVC026,0.03,VWS V14.01,2013-06-30 11:27:00,
2013-06-30 06:28:00,62.6,58.7,29.72,WNW,300,0.0,6.0,87,0.00,,OVC026,0.03,VWS V14.01,2013-06-30 11:28:00,
2013-06-30 06:30:00,62.6,58.7,29.72,NW,321,0.0,6.0,87,0.00,,,0.03,VWS V14.01,2013-06-30 11:30:00,
2013-06-30 06:32:00,62.6,58.7,29.72,NW,321,0.0,4.0,87,0.00,,OVC026,0.03,VWS V14.01,2013-06-30 11:32:00,
2013-06-30 06:33:00,62.6,58.7,29.72,NW,325,0.0,4.0,87,0.00,,OVC026,0.03,VWS V14.01,2013-06-30 11:33:00,
2013-06-30 06:37:00,62.6,58.7,29.72,WNW,302,3.0,5.0,87,0.00,,OVC026,0.03,VWS V14.01,2013-06-30 11:37:00,
2013-06-30 06:38:00,62.6,58.7,29.72,NW,318,4.0,5.0,87,0.00,,OVC026,0.03,VWS V14.01,2013-06-30 11:38:00,
2013-06-30 06:42:00,62.6,58.7,29.72,WNW,298,7.0,9.0,87,0.00,,OVC026,0.03,VWS V14.01,2013-06-30 11:42:00,
2013-06-30 06:43:00,62.6,58.7,29.72,NW,326,4.0,9.0,87,0.00,,OVC026,0.03,VWS V14.01,2013-06-30 11:43:00,
2013-06-30 06:48:00,62.6,58.4,29.72,NNW,342,0.0,9.0,86,0.00,,OVC032,0.03,VWS V14.01,2013-06-30 11:48:00,
2013-06-30 06:53:00,62.6,58.4,29.72,NNW,342,0.0,9.0,86,0.00,,OVC032,0.03,VWS V14.01,2013-06-30 11:53:00,
2013-06-30 06:58:00,62.8,58.6,29.72,NW,323,2.0,9.0,86,0.00,,OVC032,0.03,VWS V14.01,2013-06-30 11:58:00,
2013-06-30 06:59:00,62.8,58.6,29.72,North,349,0.0,9.0,86,0.00,,OVC032,0.03,VWS V14.01,2013-06-30 11:59:00,
2013-06-30 07:00:00,62.8,58.6,29.73,NW,325,0.0,9.0,86,0.00,,,0.03,VWS V14.01,2013-06-30 12:00:00,
2013-06-30 07:03:00,62.8,58.6,29.73,NW,321,0.0,1.0,86,0.00,,OVC034,0.03,VWS V14.01,2013-06-30 12:03:00,
2013-06-30 07:04:00,62.8,58.6,29.73,NNE,20,0.0,1.0,86,0.00,,OVC034,0.03,VWS V14.01,2013-06-30 12:04:00,
2013-06-30 07:08:00,62.8,58.6,29.73,NNW,343,0.0,6.0,86,0.00,,OVC034,0.03,VWS V14.01,2013-06-30 12:08:00,
2013-06-30 07:09:00,62.8,58.6,29.73,NW,310,0.0,6.0,86,0.00,,OVC034,0.03,VWS V14.01,2013-06-30 12:09:00,
2013-06-30 07:13:00,63.0,58.8,29.73,NNE,24,0.0,6.0,86,0.00,,OVC034,0.03,VWS V14.01,2013-06-30 12:13:00,
2013-06-30 07:14:00,63.0,58.8,29.73,NNW,329,0.0,6.0,86,0.00,,OVC034,0.03,VWS V14.01,2013-06-30 12:14:00,
2013-06-30 07:18:00,62.8,58.6,29.74,NW,323,5.0,7.0,86,0.00,,OVC020,0.03,VWS V14.01,2013-06-30 12:18:00,
2013-06-30 07:19:00,62.8,58.6,29.74,North,5,0.0,7.0,86,0.00,,OVC020,0.03,VWS V14.01,2013-06-30 12:19:00,
2013-06-30 07:23:00,63.0,58.8,29.74,NNW,344,1.0,7.0,86,0.00,,OVC020,0.03,VWS V14.01,2013-06-30 12:23:00,
2013-06-30 07:24:00,63.0,58.8,29.74,NNW,341,0.0,7.0,86,0.00,,OVC020,0.03,VWS V14.01,2013-06-30 12:24:00,
2013-06-30 07:25:00,63.0,58.8,29.74,NW,315,0.0,7.0,86,0.00,,OVC020,0.03,VWS V14.01,2013-06-30 12:25:00,
2013-06-30 07:28:00,63.0,58.4,29.74,NW,323,0.0,7.0,85,0.00,,OVC020,0.03,VWS V14.01,2013-06-30 12:28:00,
2013-06-30 07:29:00,63.0,58.4,29.74,NNW,327,0.0,7.0,85,0.00,,OVC020,0.03,VWS V14.01,2013-06-30 12:29:00,
2013-06-30 07:30:00,63.0,58.4,29.74,NW,315,0.0,7.0,85,0.00,,OVC020,0.03,VWS V14.01,2013-06-30 12:30:00,
2013-06-30 07:33:00,63.0,58.8,29.74,NNW,331,0.0,6.0,86,0.00,,OVC020,0.03,VWS V14.01,2013-06-30 12:33:00,
2013-06-30 07:34:00,63.0,58.8,29.74,NW,322,0.0,6.0,86,0.00,,OVC020,0.03,VWS V14.01,2013-06-30 12:34:00,
2013-06-30 07:36:00,63.1,58.8,29.74,NNW,344,0.0,6.0,86,0.00,,OVC020,0.03,VWS V14.01,2013-06-30 12:36:00,
2013-06-30 07:38:00,63.1,58.5,29.74,NW,325,0.0,6.0,85,0.00,,OVC020,0.03,VWS V14.01,2013-06-30 12:38:00,
2013-06-30 07:39:00,63.1,58.8,29.74,NNW,348,0.0,6.0,86,0.00,,OVC020,0.03,VWS V14.01,2013-06-30 12:39:00,
2013-06-30 07:40:00,63.1,58.5,29.74,NW,306,2.0,7.0,85,0.00,,OVC020,0.03,VWS V14.01,2013-06-30 12:40:00,
2013-06-30 07:41:00,63.1,58.5,29.74,NW,318,0.0,7.0,85,0.00,,OVC020,0.03,VWS V14.01,2013-06-30 12:41:00,
2013-06-30 07:43:00,63.0,58.4,29.74,WNW,292,0.0,7.0,85,0.00,,OVC020,0.03,VWS V14.01,2013-06-30 12:43:00,
2013-06-30 07:44:00,63.1,58.5,29.74,NW,312,0.0,7.0,85,0.00,,OVC020,0.03,VWS V14.01,2013-06-30 12:44:00,
2013-06-30 07:45:00,63.1,58.8,29.74,NNW,334,0.0,7.0,86,0.00,,OVC020,0.03,VWS V14.01,2013-06-30 12:45:00,
2013-06-30 07:46:00,63.1,58.8,29.74,NW,319,0.0,7.0,86,0.00,,OVC020,0.03,VWS V14.01,2013-06-30 12:46:00,
2013-06-30 07:48:00,63.1,58.5,29.74,NW,326,0.0,7.0,85,0.00,,OVC020,0.03,VWS V14.01,2013-06-30 12:48:00,
2013-06-30 07:49:00,63.1,58.8,29.74,NNW,347,5.0,7.0,86,0.00,,OVC020,0.03,VWS V14.01,2013-06-30 12:49:00,
2013-06-30 07:50:00,63.1,58.8,29.74,WNW,299,8.0,8.0,86,0.00,,OVC020,0.03,VWS V14.01,2013-06-30 12:50:00,
2013-06-30 07:51:00,63.1,58.5,29.74,NE,46,4.0,9.0,85,0.00,,OVC020,0.03,VWS V14.01,2013-06-30 12:51:00,
2013-06-30 07:54:00,63.1,58.5,29.74,NW,322,0.0,9.0,85,0.00,,OVC020,0.03,VWS V14.01,2013-06-30 12:54:00,
2013-06-30 07:55:00,63.3,59.0,29.74,NW,322,0.0,9.0,86,0.00,,OVC020,0.03,VWS V14.01,2013-06-30 12:55:00,
2013-06-30 07:56:00,63.3,59.0,29.74,NW,306,0.0,9.0,86,0.00,,OVC020,0.03,VWS V14.01,2013-06-30 12:56:00,
2013-06-30 07:59:00,63.3,58.7,29.74,NW,315,0.0,9.0,85,0.00,,OVC020,0.03,VWS V14.01,2013-06-30 12:59:00,
2013-06-30 08:00:00,63.3,59.0,29.74,NNW,343,0.0,9.0,86,0.00,,OVC020,0.03,VWS V14.01,2013-06-30 13:00:00,
2013-06-30 08:02:00,63.3,58.7,29.74,North,355,0.0,7.0,85,0.00,,OVC020,0.03,VWS V14.01,2013-06-30 13:02:00,
2013-06-30 08:04:00,63.3,58.7,29.74,NW,313,0.0,7.0,85,0.00,,OVC020,0.03,VWS V14.01,2013-06-30 13:04:00,
2013-06-30 08:05:00,63.4,58.8,29.74,NE,55,4.0,7.0,85,0.00,,OVC020,0.03,VWS V14.01,2013-06-30 13:05:00,
2013-06-30 08:06:00,63.4,58.8,29.74,North,350,0.0,7.0,85,0.00,,OVC020,0.03,VWS V14.01,2013-06-30 13:06:00,
2013-06-30 08:07:00,63.4,59.2,29.74,NW,326,0.0,7.0,86,0.00,,OVC020,0.03,VWS V14.01,2013-06-30 13:07:00,
2013-06-30 08:09:00,63.4,58.8,29.74,NW,325,2.0,9.0,85,0.00,,OVC020,0.03,VWS V14.01,2013-06-30 13:09:00,
2013-06-30 08:10:00,63.6,59.0,29.74,NW,324,5.0,9.0,85,0.00,,OVC020,0.03,VWS V14.01,2013-06-30 13:10:00,
2013-06-30 08:11:00,63.6,59.0,29.74,NNW,338,6.0,9.0,85,0.00,,OVC020,0.03,VWS V14.01,2013-06-30 13:11:00,
2013-06-30 08:12:00,63.6,59.0,29.74,NW,321,0.0,10.0,85,0.00,,OVC020,0.03,VWS V14.01,2013-06-30 13:12:00,
2013-06-30 08:14:00,63.6,59.0,29.74,NW,321,0.0,10.0,85,0.00,,OVC020,0.03,VWS V14.01,2013-06-30 13:14:00,
2013-06-30 08:16:00,63.6,59.0,29.75,NW,322,0.0,10.0,85,0.00,,BKN040,0.03,VWS V14.01,2013-06-30 13:16:00,
2013-06-30 08:17:00,63.6,59.0,29.75,NW,321,9.0,10.0,85,0.00,,BKN040,0.03,VWS V14.01,2013-06-30 13:17:00,
2013-06-30 08:19:00,63.6,59.0,29.75,NNW,336,3.0,10.0,85,0.00,,BKN040,0.03,VWS V14.01,2013-06-30 13:19:00,
2013-06-30 08:20:00,63.6,59.0,29.75,NNW,333,0.0,10.0,85,0.00,,BKN040,0.03,VWS V14.01,2013-06-30 13:20:00,
2013-06-30 08:21:00,63.6,59.0,29.75,North,360,0.0,10.0,85,0.00,,BKN040,0.03,VWS V14.01,2013-06-30 13:21:00,
2013-06-30 08:22:00,63.6,59.0,29.75,North,9,9.0,10.0,85,0.00,,BKN040,0.03,VWS V14.01,2013-06-30 13:22:00,
2013-06-30 08:24:00,63.6,59.0,29.75,NW,319,0.0,10.0,85,0.00,,BKN040,0.03,VWS V14.01,2013-06-30 13:24:00,
2013-06-30 08:25:00,63.8,59.2,29.75,NW,312,0.0,10.0,85,0.00,,BKN040,0.03,VWS V14.01,2013-06-30 13:25:00,
2013-06-30 08:26:00,63.8,59.2,29.75,NNW,336,0.0,10.0,85,0.00,,BKN040,0.03,VWS V14.01,2013-06-30 13:26:00,
2013-06-30 08:27:00,63.8,59.2,29.75,NNW,327,3.0,10.0,85,0.00,,BKN040,0.03,VWS V14.01,2013-06-30 13:27:00,
2013-06-30 08:29:00,63.8,59.2,29.75,NW,320,0.0,10.0,85,0.00,,BKN040,0.03,VWS V14.01,2013-06-30 13:29:00,
2013-06-30 08:30:00,63.8,59.2,29.75,NW,325,2.0,10.0,85,0.00,,,0.03,VWS V14.01,2013-06-30 13:30:00,
2013-06-30 08:31:00,63.8,59.2,29.75,NW,324,0.0,2.0,85,0.00,,BKN040,0.03,VWS V14.01,2013-06-30 13:31:00,
2013-06-30 08:32:00,63.9,59.3,29.75,NNW,338,0.0,2.0,85,0.00,,BKN040,0.03,VWS V14.01,2013-06-30 13:32:00,
2013-06-30 08:35:00,63.9,59.3,29.75,North,360,5.0,11.0,85,0.00,,BKN040,0.03,VWS V14.01,2013-06-30 13:35:00,
2013-06-30 08:36:00,63.9,59.3,29.75,NNW,330,0.0,11.0,85,0.00,,BKN040,0.03,VWS V14.01,2013-06-30 13:36:00,
2013-06-30 08:37:00,64.1,59.5,29.75,NW,318,2.0,11.0,85,0.00,,BKN040,0.03,VWS V14.01,2013-06-30 13:37:00,
2013-06-30 08:40:00,64.1,59.5,29.75,NW,309,4.0,11.0,85,0.00,,BKN040,0.03,VWS V14.01,2013-06-30 13:40:00,
2013-06-30 08:41:00,64.1,59.5,29.75,North,350,3.0,11.0,85,0.00,,BKN040,0.03,VWS V14.01,2013-06-30 13:41:00,
2013-06-30 08:43:00,64.2,59.6,29.75,North,355,1.0,11.0,85,0.00,,BKN040,0.03,VWS V14.01,2013-06-30 13:43:00,
2013-06-30 08:45:00,64.4,59.8,29.76,NW,306,0.0,11.0,85,0.00,,BKN040,0.03,VWS V14.01,2013-06-30 13:45:00,
2013-06-30 08:46:00,64.4,59.8,29.76,NW,315,0.0,11.0,85,0.00,,OVC015,0.03,VWS V14.01,2013-06-30 13:46:00,
2013-06-30 08:48:00,64.4,59.8,29.76,NW,315,2.0,11.0,85,0.00,,OVC015,0.03,VWS V14.01,2013-06-30 13:48:00,
2013-06-30 08:50:00,64.4,59.8,29.76,NW,314,0.0,11.0,85,0.00,,OVC015,0.03,VWS V14.01,2013-06-30 13:50:00,
2013-06-30 08:51:00,64.4,59.8,29.76,NNW,327,3.0,11.0,85,0.00,,OVC015,0.03,VWS V14.01,2013-06-30 13:51:00,
2013-06-30 08:53:00,64.4,59.8,29.76,NNW,329,8.0,12.0,85,0.00,,OVC015,0.03,VWS V14.01,2013-06-30 13:53:00,
2013-06-30 08:55:00,64.4,59.8,29.76,NW,324,10.0,12.0,85,0.00,,OVC015,0.03,VWS V14.01,2013-06-30 13:55:00,
2013-06-30 08:56:00,64.2,59.6,29.76,NW,307,0.0,12.0,85,0.00,,OVC015,0.03,VWS V14.01,2013-06-30 13:56:00,
2013-06-30 08:57:00,64.2,59.6,29.76,NNE,20,4.0,12.0,85,0.00,,OVC015,0.03,VWS V14.01,2013-06-30 13:57:00,
2013-06-30 08:58:00,64.4,59.8,29.76,NNE,15,7.0,12.0,85,0.00,,OVC015,0.03,VWS V14.01,2013-06-30 13:58:00,
2013-06-30 09:00:00,64.2,59.6,29.76,NW,321,0.0,12.0,85,0.00,,OVC015,0.03,VWS V14.01,2013-06-30 14:00:00,
2013-06-30 09:01:00,64.2,59.9,29.76,NNW,334,1.0,9.0,86,0.00,,OVC013,0.03,VWS V14.01,2013-06-30 14:01:00,
2013-06-30 09:02:00,64.2,59.6,29.76,NW,325,1.0,9.0,85,0.00,,OVC013,0.03,VWS V14.01,2013-06-30 14:02:00,
2013-06-30 09:03:00,64.2,59.9,29.76,NW,315,0.0,9.0,86,0.00,,OVC013,0.03,VWS V14.01,2013-06-30 14:03:00,
2013-06-30 09:05:00,64.4,60.1,29.76,NNW,332,3.0,9.0,86,0.00,,OVC013,0.03,VWS V14.01,2013-06-30 14:05:00,
2013-06-30 09:07:00,64.4,60.1,29.76,NW,323,10.0,11.0,86,0.00,,OVC013,0.03,VWS V14.01,2013-06-30 14:07:00,
2013-06-30 09:08:00,64.4,59.8,29.76,NW,318,3.0,12.0,85,0.00,,OVC013,0.03,VWS V14.01,2013-06-30 14:08:00,
2013-06-30 09:09:00,64.4,60.1,29.76,NW,319,9.0,12.0,86,0.00,,OVC013,0.03,VWS V14.01,2013-06-30 14:09:00,
2013-06-30 09:10:00,64.4,60.1,29.76,NW,322,6.0,12.0,86,0.00,,OVC013,0.03,VWS V14.01,2013-06-30 14:10:00,
2013-06-30 09:12:00,64.4,60.1,29.76,North,360,0.0,12.0,86,0.00,,OVC013,0.03,VWS V14.01,2013-06-30 14:12:00,
2013-06-30 09:13:00,64.4,60.1,29.76,North,355,0.0,12.0,86,0.00,,OVC013,0.03,VWS V14.01,2013-06-30 14:13:00,
2013-06-30 09:14:00,64.4,60.1,29.76,North,10,0.0,12.0,86,0.00,,OVC013,0.03,VWS V14.01,2013-06-30 14:14:00,
2013-06-30 09:15:00,64.4,60.1,29.77,NW,319,0.0,12.0,86,0.00,,OVC015,0.03,VWS V14.01,2013-06-30 14:15:00,
2013-06-30 09:17:00,64.6,60.3,29.77,NW,304,2.0,12.0,86,0.00,,OVC015,0.03,VWS V14.01,2013-06-30 14:17:00,
2013-06-30 09:18:00,64.4,60.1,29.77,NNW,327,0.0,12.0,86,0.00,,OVC015,0.03,VWS V14.01,2013-06-30 14:18:00,
2013-06-30 09:19:00,64.4,60.1,29.77,North,9,6.0,12.0,86,0.00,,OVC015,0.03,VWS V14.01,2013-06-30 14:19:00,
2013-06-30 09:20:00,64.6,60.3,29.77,NW,326,3.0,12.0,86,0.00,,OVC015,0.03,VWS V14.01,2013-06-30 14:20:00,
2013-06-30 09:22:00,64.6,60.0,29.77,NW,314,0.0,12.0,85,0.00,,OVC015,0.03,VWS V14.01,2013-06-30 14:22:00,
2013-06-30 09:23:00,64.6,60.3,29.77,NW,314,0.0,12.0,86,0.00,,OVC015,0.03,VWS V14.01,2013-06-30 14:23:00,
2013-06-30 09:24:00,64.6,60.3,29.77,North,355,0.0,12.0,86,0.00,,OVC015,0.03,VWS V14.01,2013-06-30 14:24:00,
2013-06-30 09:25:00,64.7,60.4,29.77,NNW,337,0.0,12.0,86,0.00,,OVC015,0.03,VWS V14.01,2013-06-30 14:25:00,
2013-06-30 09:27:00,64.7,60.4,29.77,NNW,327,0.0,12.0,86,0.00,,OVC015,0.03,VWS V14.01,2013-06-30 14:27:00,
2013-06-30 09:28:00,64.9,60.3,29.77,North,5,5.0,12.0,85,0.00,,OVC015,0.03,VWS V14.01,2013-06-30 14:28:00,
2013-06-30 09:29:00,64.9,60.6,29.77,NW,319,0.0,12.0,86,0.00,,OVC015,0.03,VWS V14.01,2013-06-30 14:29:00,
2013-06-30 09:30:00,65.1,60.5,29.76,NNW,344,2.0,12.0,85,0.00,,,0.03,VWS V14.01,2013-06-30 14:30:00,
2013-06-30 09:31:00,65.1,60.5,29.76,NW,306,0.0,2.0,85,0.00,,OVC015,0.03,VWS V14.01,2013-06-30 14:31:00,
2013-06-30 09:32:00,65.2,60.6,29.76,NNE,28,0.0,6.0,85,0.00,,OVC015,0.03,VWS V14.01,2013-06-30 14:32:00,
2013-06-30 09:33:00,65.2,60.6,29.76,NNE,29,5.0,6.0,85,0.00,,OVC015,0.03,VWS V14.01,2013-06-30 14:33:00,
2013-06-30 09:34:00,65.2,60.6,29.76,North,5,1.0,9.0,85,0.00,,OVC015,0.03,VWS V14.01,2013-06-30 14:34:00,
2013-06-30 09:36:00,65.2,60.6,29.76,WNW,295,1.0,10.0,85,0.00,,OVC015,0.03,VWS V14.01,2013-06-30 14:36:00,
2013-06-30 09:37:00,65.1,60.5,29.76,ENE,59,6.0,10.0,85,0.00,,OVC015,0.03,VWS V14.01,2013-06-30 14:37:00,
2013-06-30 09:38:00,65.1,60.5,29.76,NNW,340,9.0,10.0,85,0.00,,OVC015,0.03,VWS V14.01,2013-06-30 14:38:00,
2013-06-30 09:39:00,65.1,60.5,29.76,NW,304,0.0,11.0,85,0.00,,OVC015,0.03,VWS V14.01,2013-06-30 14:39:00,
2013-06-30 09:41:00,65.1,60.5,29.76,NNW,329,3.0,11.0,85,0.00,,OVC015,0.03,VWS V14.01,2013-06-30 14:41:00,
2013-06-30 09:43:00,65.1,60.8,29.76,WNW,298,0.0,11.0,86,0.00,,OVC015,0.03,VWS V14.01,2013-06-30 14:43:00,
2013-06-30 09:44:00,65.1,60.5,29.76,NNE,21,6.0,11.0,85,0.00,,OVC015,0.03,VWS V14.01,2013-06-30 14:44:00,
2013-06-30 09:46:00,65.1,60.5,29.77,NNW,347,4.0,11.0,85,0.00,,OVC009,0.03,VWS V14.01,2013-06-30 14:46:00,
2013-06-30 09:48:00,65.1,60.5,29.77,NW,311,9.0,12.0,85,0.00,,OVC009,0.03,VWS V14.01,2013-06-30 14:48:00,
2013-06-30 09:49:00,65.1,60.5,29.77,NW,323,3.0,12.0,85,0.00,,OVC009,0.03,VWS V14.01,2013-06-30 14:49:00,
2013-06-30 09:50:00,65.1,60.5,29.77,WNW,296,0.0,12.0,85,0.00,,OVC009,0.03,VWS V14.01,2013-06-30 14:50:00,
2013-06-30 09:51:00,65.1,60.5,29.77,NW,309,0.0,12.0,85,0.00,,OVC009,0.03,VWS V14.01,2013-06-30 14:51:00,
2013-06-30 09:53:00,65.1,60.8,29.77,NNW,340,11.0,14.0,86,0.00,,OVC009,0.03,VWS V14.01,2013-06-30 14:53:00,
2013-06-30 09:54:00,65.1,60.5,29.77,NNE,24,5.0,14.0,85,0.00,,OVC009,0.03,VWS V14.01,2013-06-30 14:54:00,
2013-06-30 09:55:00,65.1,60.5,29.77,NNE,15,0.0,14.0,85,0.00,,OVC009,0.03,VWS V14.01,2013-06-30 14:55:00,
2013-06-30 09:56:00,65.1,60.5,29.77,NW,313,0.0,14.0,85,0.00,,OVC009,0.03,VWS V14.01,2013-06-30 14:56:00,
2013-06-30 09:58:00,65.2,60.6,29.77,NNW,328,0.0,14.0,85,0.00,,OVC009,0.03,VWS V14.01,2013-06-30 14:58:00,
2013-06-30 09:59:00,65.2,60.6,29.77,NW,313,0.0,14.0,85,0.00,,OVC009,0.03,VWS V14.01,2013-06-30 14:59:00,
2013-06-30 10:00:00,65.2,60.6,29.77,WNW,302,4.0,14.0,85,0.00,,OVC009,0.03,VWS V14.01,2013-06-30 15:00:00,
2013-06-30 10:01:00,65.2,60.6,29.77,NW,319,7.0,11.0,85,0.00,,OVC009,0.03,VWS V14.01,2013-06-30 15:01:00,
2013-06-30 10:04:00,65.4,60.8,29.77,NW,309,3.0,11.0,85,0.00,,OVC009,0.03,VWS V14.01,2013-06-30 15:04:00,
2013-06-30 10:06:00,65.4,60.8,29.77,NW,313,0.0,11.0,85,0.00,,OVC009,0.03,VWS V14.01,2013-06-30 15:06:00,
2013-06-30 10:09:00,65.4,60.5,29.77,North,350,7.0,11.0,84,0.00,,OVC009,0.03,VWS V14.01,2013-06-30 15:09:00,
2013-06-30 10:11:00,65.4,60.8,29.77,North,355,5.0,11.0,85,0.00,,OVC009,0.03,VWS V14.01,2013-06-30 15:11:00,
2013-06-30 10:14:00,65.4,60.8,29.77,North,9,5.0,11.0,85,0.00,,OVC009,0.03,VWS V14.01,2013-06-30 15:14:00,
2013-06-30 10:16:00,65.5,60.9,29.77,North,355,0.0,11.0,85,0.00,,OVC009,0.03,VWS V14.01,2013-06-30 15:16:00,
2013-06-30 10:19:00,65.5,60.9,29.77,NNW,341,0.0,11.0,85,0.00,,OVC009,0.03,VWS V14.01,2013-06-30 15:19:00,
2013-06-30 10:20:00,65.5,60.9,29.77,North,355,1.0,11.0,85,0.00,,OVC009,0.03,VWS V14.01,2013-06-30 15:20:00,
2013-06-30 10:21:00,65.5,60.9,29.77,NNW,343,0.0,11.0,85,0.00,,OVC009,0.03,VWS V14.01,2013-06-30 15:21:00,
2013-06-30 10:22:00,65.5,60.9,29.77,NW,319,1.0,11.0,85,0.00,,OVC009,0.03,VWS V14.01,2013-06-30 15:22:00,
2013-06-30 10:24:00,65.5,60.9,29.77,NW,307,0.0,11.0,85,0.00,,OVC009,0.03,VWS V14.01,2013-06-30 15:24:00,
2013-06-30 10:25:00,65.5,60.9,29.77,NW,315,0.0,11.0,85,0.00,,OVC009,0.03,VWS V14.01,2013-06-30 15:25:00,
2013-06-30 10:26:00,65.7,61.1,29.77,NW,314,0.0,11.0,85,0.00,,OVC009,0.03,VWS V14.01,2013-06-30 15:26:00,
2013-06-30 10:27:00,65.7,61.1,29.77,NNW,348,3.0,11.0,85,0.00,,OVC009,0.03,VWS V14.01,2013-06-30 15:27:00,
2013-06-30 10:29:00,65.5,60.9,29.77,WNW,298,1.0,11.0,85,0.00,,OVC009,0.03,VWS V14.01,2013-06-30 15:29:00,
2013-06-30 10:30:00,65.5,60.9,29.77,NW,321,0.0,11.0,85,0.00,,OVC009,0.03,VWS V14.01,2013-06-30 15:30:00,
2013-06-30 10:31:00,65.5,60.9,29.77,NNW,332,0.0,0.0,85,0.00,,OVC009,0.03,VWS V14.01,2013-06-30 15:31:00,
2013-06-30 10:32:00,65.5,60.9,29.77,NNW,327,0.0,0.0,85,0.00,,OVC009,0.03,VWS V14.01,2013-06-30 15:32:00,
2013-06-30 10:34:00,65.5,61.2,29.77,North,10,0.0,0.0,86,0.00,,OVC009,0.03,VWS V14.01,2013-06-30 15:34:00,
2013-06-30 10:35:00,65.5,61.2,29.77,NW,311,0.0,0.0,86,0.00,,OVC009,0.03,VWS V14.01,2013-06-30 15:35:00,
2013-06-30 10:36:00,65.5,61.2,29.77,NW,306,0.0,0.0,86,0.00,,OVC009,0.03,VWS V14.01,2013-06-30 15:36:00,
2013-06-30 10:37:00,65.5,61.2,29.77,North,360,5.0,5.0,86,0.00,,OVC009,0.03,VWS V14.01,2013-06-30 15:37:00,
2013-06-30 10:39:00,65.5,61.2,29.77,NNW,347,3.0,6.0,86,0.00,,OVC009,0.03,VWS V14.01,2013-06-30 15:39:00,
2013-06-30 10:40:00,65.5,61.2,29.77,NNW,331,2.0,6.0,86,0.00,,OVC009,0.03,VWS V14.01,2013-06-30 15:40:00,
2013-06-30 10:41:00,65.5,61.2,29.77,NNW,328,0.0,6.0,86,0.00,,OVC009,0.03,VWS V14.01,2013-06-30 15:41:00,
2013-06-30 10:42:00,65.5,61.2,29.77,NW,307,0.0,6.0,86,0.00,,OVC009,0.03,VWS V14.01,2013-06-30 15:42:00,
2013-06-30 10:44:00,65.7,61.4,29.77,NNE,31,0.0,6.0,86,0.00,,OVC009,0.03,VWS V14.01,2013-06-30 15:44:00,
2013-06-30 10:45:00,65.7,61.4,29.78,North,349,0.0,6.0,86,0.00,,OVC011,0.03,VWS V14.01,2013-06-30 15:45:00,
2013-06-30 10:46:00,65.7,61.4,29.78,NE,42,0.0,6.0,86,0.00,,OVC011,0.03,VWS V14.01,2013-06-30 15:46:00,
2013-06-30 10:47:00,65.7,61.4,29.78,NNW,344,0.0,6.0,86,0.00,,OVC011,0.03,VWS V14.01,2013-06-30 15:47:00,
2013-06-30 10:50:00,65.9,61.6,29.78,NNE,19,2.0,6.0,86,0.00,,OVC011,0.03,VWS V14.01,2013-06-30 15:50:00,
2013-06-30 10:51:00,65.9,61.6,29.78,NNW,345,0.0,6.0,86,0.00,,OVC011,0.03,VWS V14.01,2013-06-30 15:51:00,
2013-06-30 10:52:00,65.9,61.6,29.78,NNE,21,0.0,6.0,86,0.00,,OVC011,0.03,VWS V14.01,2013-06-30 15:52:00,
2013-06-30 10:53:00,66.0,61.7,29.78,NNE,14,5.0,6.0,86,0.00,,OVC011,0.03,VWS V14.01,2013-06-30 15:53:00,
2013-06-30 10:55:00,66.2,61.6,29.78,NNW,338,0.0,9.0,85,0.00,,OVC011,0.03,VWS V14.01,2013-06-30 15:55:00,
2013-06-30 10:56:00,66.2,61.6,29.78,NW,323,0.0,9.0,85,0.00,,OVC011,0.03,VWS V14.01,2013-06-30 15:56:00,
2013-06-30 10:57:00,66.5,62.2,29.78,North,360,1.0,9.0,86,0.00,,OVC011,0.03,VWS V14.01,2013-06-30 15:57:00,
2013-06-30 10:58:00,66.7,62.0,29.78,North,360,2.0,9.0,85,0.00,,OVC011,0.03,VWS V14.01,2013-06-30 15:58:00,
2013-06-30 11:00:00,67.0,61.7,29.77,NNW,341,0.0,9.0,83,0.00,,,0.03,VWS V14.01,2013-06-30 16:00:00,
2013-06-30 11:01:00,67.0,61.7,29.77,NNW,339,0.0,0.0,83,0.00,,OVC011,0.03,VWS V14.01,2013-06-30 16:01:00,
2013-06-30 11:02:00,67.2,61.9,29.77,NNW,333,0.0,6.0,83,0.00,,OVC011,0.03,VWS V14.01,2013-06-30 16:02:00,
2013-06-30 11:03:00,67.3,61.6,29.77,NW,320,0.0,6.0,82,0.00,,OVC011,0.03,VWS V14.01,2013-06-30 16:03:00,
2013-06-30 11:06:00,67.5,61.8,29.77,NW,323,8.0,13.0,82,0.00,,OVC011,0.03,VWS V14.01,2013-06-30 16:06:00,
2013-06-30 11:07:00,67.7,62.0,29.77,North,355,0.0,13.0,82,0.00,,OVC011,0.03,VWS V14.01,2013-06-30 16:07:00,
2013-06-30 11:08:00,67.7,62.0,29.77,NNE,19,0.0,13.0,82,0.00,,OVC011,0.03,VWS V14.01,2013-06-30 16:08:00,
2013-06-30 11:11:00,67.7,61.7,29.77,NNE,26,5.0,13.0,81,0.00,,OVC011,0.03,VWS V14.01,2013-06-30 16:11:00,
2013-06-30 11:12:00,67.7,61.7,29.77,North,350,7.0,13.0,81,0.00,,OVC011,0.03,VWS V14.01,2013-06-30 16:12:00,
2013-06-30 11:13:00,67.7,61.7,29.77,NNW,336,6.0,13.0,81,0.00,,OVC011,0.03,VWS V14.01,2013-06-30 16:13:00,
2013-06-30 11:16:00,67.7,61.7,29.78,NE,34,2.0,13.0,81,0.00,,OVC011,0.03,VWS V14.01,2013-06-30 16:16:00,
2013-06-30 11:17:00,67.7,61.7,29.78,NE,38,5.0,13.0,81,0.00,,OVC011,0.03,VWS V14.01,2013-06-30 16:17:00,
2013-06-30 11:18:00,67.7,61.3,29.78,NW,313,4.0,13.0,80,0.00,,OVC011,0.03,VWS V14.01,2013-06-30 16:18:00,
2013-06-30 11:22:00,68.0,62.0,29.78,NNE,32,0.0,13.0,81,0.00,,OVC011,0.03,VWS V14.01,2013-06-30 16:22:00,
2013-06-30 11:23:00,68.2,62.2,29.78,NNE,16,0.0,13.0,81,0.00,,OVC011,0.03,VWS V14.01,2013-06-30 16:23:00,
2013-06-30 11:27:00,68.8,62.0,29.78,NNE,28,0.0,13.0,79,0.00,,OVC011,0.03,VWS V14.01,2013-06-30 16:27:00,
2013-06-30 11:28:00,69.0,61.9,29.78,NE,38,4.0,13.0,78,0.00,,OVC011,0.03,VWS V14.01,2013-06-30 16:28:00,
2013-06-30 11:29:00,69.2,62.1,29.78,NNE,21,4.0,13.0,78,0.00,,OVC011,0.03,VWS V14.01,2013-06-30 16:29:00,
2013-06-30 11:30:00,69.5,62.0,29.78,NNE,17,0.0,13.0,77,0.00,,,0.03,VWS V14.01,2013-06-30 16:30:00,
2013-06-30 11:32:00,69.7,62.2,29.78,NNE,28,7.0,7.0,77,0.00,,OVC011,0.03,VWS V14.01,2013-06-30 16:32:00,
2013-06-30 11:33:00,69.7,61.8,29.78,NE,40,6.0,10.0,76,0.00,,OVC011,0.03,VWS V14.01,2013-06-30 16:33:00,
2013-06-30 11:34:00,69.8,62.3,29.78,WNW,298,3.0,10.0,77,0.00,,OVC011,0.03,VWS V14.01,2013-06-30 16:34:00,
2013-06-30 11:37:00,69.8,62.3,29.78,NW,318,3.0,10.0,77,0.00,,OVC011,0.03,VWS V14.01,2013-06-30 16:37:00,
2013-06-30 11:38:00,70.0,62.5,29.78,WNW,298,0.0,10.0,77,0.00,,OVC011,0.03,VWS V14.01,2013-06-30 16:38:00,
2013-06-30 11:39:00,70.0,62.5,29.78,NNW,340,0.0,10.0,77,0.00,,OVC011,0.03,VWS V14.01,2013-06-30 16:39:00,
2013-06-30 11:42:00,70.2,62.3,29.78,NNW,346,9.0,10.0,76,0.00,,OVC011,0.03,VWS V14.01,2013-06-30 16:42:00,
2013-06-30 11:43:00,70.2,62.3,29.78,NW,309,0.0,10.0,76,0.00,,OVC011,0.03,VWS V14.01,2013-06-30 16:43:00,
2013-06-30 11:45:00,70.5,63.0,29.78,NNE,17,0.0,10.0,77,0.00,,OVC011,0.03,VWS V14.01,2013-06-30 16:45:00,
2013-06-30 11:47:00,70.8,62.9,29.78,NW,317,0.0,10.0,76,0.00,,OVC016,0.03,VWS V14.01,2013-06-30 16:47:00,
2013-06-30 11:48:00,70.8,62.9,29.78,NNW,328,1.0,10.0,76,0.00,,OVC016,0.03,VWS V14.01,2013-06-30 16:48:00,
2013-06-30 11:50:00,71.0,62.3,29.78,NNE,26,7.0,11.0,74,0.00,,OVC016,0.03,VWS V14.01,2013-06-30 16:50:00,
2013-06-30 11:52:00,71.0,61.9,29.78,North,355,6.0,11.0,73,0.00,,OVC016,0.03,VWS V14.01,2013-06-30 16:52:00,
2013-06-30 11:53:00,71.0,61.9,29.78,North,360,2.0,11.0,73,0.00,,OVC016,0.03,VWS V14.01,2013-06-30 16:53:00,
2013-06-30 11:55:00,71.2,62.1,29.78,North,355,0.0,11.0,73,0.00,,OVC016,0.03,VWS V14.01,2013-06-30 16:55:00,
2013-06-30 11:58:00,71.5,62.0,29.78,NNE,20,6.0,11.0,72,0.00,,OVC016,0.03,VWS V14.01,2013-06-30 16:58:00,
2013-06-30 12:00:00,71.7,62.6,29.77,ENE,65,0.0,11.0,73,0.00,,OVC016,0.03,VWS V14.01,2013-06-30 17:00:00,
2013-06-30 12:03:00,71.9,62.8,29.77,NNW,330,0.0,1.0,73,0.00,,OVC022,0.03,VWS V14.01,2013-06-30 17:03:00,
2013-06-30 12:04:00,72.0,62.9,29.77,NW,310,3.0,5.0,73,0.00,,OVC022,0.03,VWS V14.01,2013-06-30 17:04:00,
2013-06-30 12:05:00,71.9,62.4,29.77,North,360,0.0,5.0,72,0.00,,OVC022,0.03,VWS V14.01,2013-06-30 17:05:00,
2013-06-30 12:08:00,72.0,62.9,29.77,North,5,0.0,5.0,73,0.00,,OVC022,0.03,VWS V14.01,2013-06-30 17:08:00,
2013-06-30 12:09:00,72.0,62.9,29.77,NNE,24,0.0,5.0,73,0.00,,OVC022,0.03,VWS V14.01,2013-06-30 17:09:00,
2013-06-30 12:10:00,71.9,62.8,29.77,NNE,13,5.0,7.0,73,0.00,,OVC022,0.03,VWS V14.01,2013-06-30 17:10:00,
2013-06-30 12:13:00,71.5,62.8,29.77,NNE,30,1.0,11.0,74,0.00,,OVC022,0.03,VWS V14.01,2013-06-30 17:13:00,
2013-06-30 12:14:00,71.5,62.8,29.77,North,5,0.0,11.0,74,0.00,,OVC022,0.03,VWS V14.01,2013-06-30 17:14:00,
2013-06-30 12:16:00,71.4,62.7,29.77,North,10,5.0,15.0,74,0.00,,OVC022,0.03,VWS V14.01,2013-06-30 17:16:00,
2013-06-30 12:18:00,71.4,62.3,29.77,North,355,2.0,15.0,73,0.00,,OVC022,0.03,VWS V14.01,2013-06-30 17:18:00,
2013-06-30 12:19:00,71.2,62.1,29.77,NNW,338,5.0,15.0,73,0.00,,OVC022,0.03,VWS V14.01,2013-06-30 17:19:00,
2013-06-30 12:21:00,71.5,63.2,29.77,NNE,22,6.0,15.0,75,0.00,,OVC022,0.03,VWS V14.01,2013-06-30 17:21:00,
2013-06-30 12:24:00,71.5,62.8,29.77,NNE,33,6.0,15.0,74,0.00,,OVC022,0.03,VWS V14.01,2013-06-30 17:24:00,
2013-06-30 12:26:00,71.5,62.8,29.77,NNW,346,4.0,15.0,74,0.00,,OVC022,0.03,VWS V14.01,2013-06-30 17:26:00,
2013-06-30 12:29:00,71.9,62.8,29.77,ENE,59,0.0,15.0,73,0.00,,OVC022,0.03,VWS V14.01,2013-06-30 17:29:00,
2013-06-30 12:30:00,72.0,63.3,29.77,NE,37,6.0,15.0,74,0.00,,,0.03,VWS V14.01,2013-06-30 17:30:00,
2013-06-30 12:31:00,72.0,62.5,29.77,NNE,13,5.0,6.0,72,0.00,,OVC022,0.03,VWS V14.01,2013-06-30 17:31:00,
2013-06-30 12:34:00,72.0,62.5,29.77,NNE,26,7.0,14.0,72,0.00,,OVC022,0.03,VWS V14.01,2013-06-30 17:34:00,
2013-06-30 12:35:00,72.0,62.1,29.77,NE,53,6.0,14.0,71,0.00,,OVC022,0.03,VWS V14.01,2013-06-30 17:35:00,
2013-06-30 12:36:00,72.0,61.7,29.77,North,5,2.0,14.0,70,0.00,,OVC022,0.03,VWS V14.01,2013-06-30 17:36:00,
2013-06-30 12:39:00,72.0,62.1,29.77,NE,49,4.0,14.0,71,0.00,,OVC022,0.03,VWS V14.01,2013-06-30 17:39:00,
2013-06-30 12:40:00,72.0,62.1,29.77,NE,43,7.0,14.0,71,0.00,,OVC022,0.03,VWS V14.01,2013-06-30 17:40:00,
2013-06-30 12:42:00,72.2,62.7,29.77,NE,34,5.0,14.0,72,0.00,,OVC022,0.03,VWS V14.01,2013-06-30 17:42:00,
2013-06-30 12:44:00,72.4,62.9,29.77,NNW,329,0.0,14.0,72,0.00,,OVC022,0.03,VWS V14.01,2013-06-30 17:44:00,
2013-06-30 12:45:00,72.4,62.9,29.77,NE,40,7.0,14.0,72,0.00,,OVC022,0.03,VWS V14.01,2013-06-30 17:45:00,
2013-06-30 12:47:00,72.2,62.7,29.77,NNE,26,4.0,14.0,72,0.00,, +RA,0.03,VWS V14.01,2013-06-30 17:47:00,
2013-06-30 12:49:00,72.0,62.5,29.77,NNW,346,12.0,14.0,72,0.00,, +RA,0.03,VWS V14.01,2013-06-30 17:49:00,
2013-06-30 12:50:00,72.0,62.5,29.77,NW,319,3.0,14.0,72,0.00,, +RA,0.03,VWS V14.01,2013-06-30 17:50:00,
2013-06-30 12:52:00,72.0,62.9,29.77,NW,305,0.0,14.0,73,0.00,, +RA,0.03,VWS V14.01,2013-06-30 17:52:00,
2013-06-30 12:54:00,72.2,63.1,29.77,NNW,330,0.0,14.0,73,0.00,, +RA,0.03,VWS V14.01,2013-06-30 17:54:00,
2013-06-30 12:55:00,72.2,63.1,29.77,North,355,4.0,14.0,73,0.00,, +RA,0.03,VWS V14.01,2013-06-30 17:55:00,
2013-06-30 12:56:00,72.2,62.7,29.77,North,5,5.0,14.0,72,0.00,, +RA,0.03,VWS V14.01,2013-06-30 17:56:00,
2013-06-30 12:57:00,72.2,62.7,29.77,North,355,3.0,14.0,72,0.00,, +RA,0.03,VWS V14.01,2013-06-30 17:57:00,
2013-06-30 13:00:00,72.0,62.5,29.77,WNW,299,9.0,14.0,72,0.00,, +RA,0.03,VWS V14.01,2013-06-30 18:00:00,
2013-06-30 13:01:00,72.0,62.9,29.77,NE,42,11.0,12.0,73,0.00,,BKN029,0.03,VWS V14.01,2013-06-30 18:01:00,
2013-06-30 13:02:00,71.7,63.0,29.77,NNE,26,12.0,17.0,74,0.00,,BKN029,0.03,VWS V14.01,2013-06-30 18:02:00,
2013-06-30 13:05:00,70.7,63.1,29.77,WNW,294,1.0,17.0,77,0.00,,BKN029,0.03,VWS V14.01,2013-06-30 18:05:00,
2013-06-30 13:06:00,70.5,63.3,29.77,North,351,1.0,17.0,78,0.00,,BKN029,0.03,VWS V14.01,2013-06-30 18:06:00,
2013-06-30 13:07:00,70.0,63.5,29.77,WNW,299,0.0,17.0,80,0.00,,BKN029,0.03,VWS V14.01,2013-06-30 18:07:00,
2013-06-30 13:10:00,69.7,63.6,29.77,NW,315,1.0,17.0,81,0.00,,BKN029,0.03,VWS V14.01,2013-06-30 18:10:00,
2013-06-30 13:11:00,69.5,63.4,29.77,NNE,22,4.0,17.0,81,0.00,,BKN029,0.03,VWS V14.01,2013-06-30 18:11:00,
2013-06-30 13:12:00,69.3,63.6,29.77,North,360,5.0,17.0,82,0.01,,BKN029,0.04,VWS V14.01,2013-06-30 18:12:00,
2013-06-30 13:15:00,69.0,63.6,29.78,NNE,23,4.0,17.0,83,0.02,,BKN029,0.05,VWS V14.01,2013-06-30 18:15:00,
2013-06-30 13:16:00,68.8,63.4,29.78,NNW,342,3.0,17.0,83,0.03,,BKN029,0.06,VWS V14.01,2013-06-30 18:16:00,
2013-06-30 13:18:00,68.5,62.8,29.78,NNW,335,2.0,17.0,82,0.04,,BKN029,0.07,VWS V14.01,2013-06-30 18:18:00,
2013-06-30 13:20:00,68.3,64.0,29.78,NW,317,1.0,17.0,86,0.05,,BKN029,0.08,VWS V14.01,2013-06-30 18:20:00,
2013-06-30 13:21:00,68.2,63.9,29.78,NW,321,3.0,17.0,86,0.05,,BKN029,0.08,VWS V14.01,2013-06-30 18:21:00,
2013-06-30 13:22:00,68.2,64.2,29.78,North,9,0.0,17.0,87,0.05,,BKN029,0.08,VWS V14.01,2013-06-30 18:22:00,
2013-06-30 13:23:00,68.0,64.0,29.78,NW,320,0.0,17.0,87,0.05,,BKN029,0.08,VWS V14.01,2013-06-30 18:23:00,
2013-06-30 13:25:00,68.0,64.3,29.78,NW,323,0.0,17.0,88,0.05,,BKN029,0.08,VWS V14.01,2013-06-30 18:25:00,
2013-06-30 13:26:00,68.0,64.3,29.78,NW,319,0.0,17.0,88,0.05,,BKN029,0.08,VWS V14.01,2013-06-30 18:26:00,
2013-06-30 13:27:00,68.0,64.3,29.78,NW,315,0.0,17.0,88,0.05,,BKN029,0.08,VWS V14.01,2013-06-30 18:27:00,
2013-06-30 13:28:00,68.0,64.6,29.78,NNW,338,1.0,17.0,89,0.05,,BKN029,0.08,VWS V14.01,2013-06-30 18:28:00,
2013-06-30 13:30:00,68.2,64.8,29.77,NW,325,1.0,17.0,89,0.05,,BKN029,0.08,VWS V14.01,2013-06-30 18:30:00,
2013-06-30 13:31:00,68.2,64.5,29.77,WNW,290,1.0,3.0,88,0.05,,BKN029,0.08,VWS V14.01,2013-06-30 18:31:00,
2013-06-30 13:32:00,68.2,64.8,29.77,WNW,302,0.0,3.0,89,0.05,,BKN029,0.08,VWS V14.01,2013-06-30 18:32:00,
2013-06-30 13:33:00,68.2,64.8,29.77,NW,323,4.0,7.0,89,0.05,,BKN029,0.08,VWS V14.01,2013-06-30 18:33:00,
2013-06-30 13:35:00,68.2,64.8,29.77,NNW,340,5.0,7.0,89,0.05,,BKN029,0.08,VWS V14.01,2013-06-30 18:35:00,
2013-06-30 13:36:00,68.2,64.8,29.77,NNW,343,0.0,7.0,89,0.05,,BKN029,0.08,VWS V14.01,2013-06-30 18:36:00,
2013-06-30 13:37:00,68.3,64.6,29.77,NW,311,0.0,7.0,88,0.05,,BKN029,0.08,VWS V14.01,2013-06-30 18:37:00,
2013-06-30 13:38:00,68.3,64.6,29.77,North,350,0.0,7.0,88,0.05,,BKN029,0.08,VWS V14.01,2013-06-30 18:38:00,
2013-06-30 13:40:00,68.2,64.2,29.77,North,350,6.0,12.0,87,0.05,,BKN029,0.08,VWS V14.01,2013-06-30 18:40:00,
2013-06-30 13:41:00,68.2,64.2,29.77,North,360,2.0,12.0,87,0.05,,BKN029,0.08,VWS V14.01,2013-06-30 18:41:00,
2013-06-30 13:42:00,68.2,64.2,29.77,North,9,0.0,12.0,87,0.05,,BKN029,0.08,VWS V14.01,2013-06-30 18:42:00,
2013-06-30 13:43:00,68.2,64.2,29.77,NW,319,9.0,12.0,87,0.05,,BKN029,0.08,VWS V14.01,2013-06-30 18:43:00,
2013-06-30 13:46:00,68.2,64.2,29.77,NW,308,4.0,12.0,87,0.05,,BKN075,0.08,VWS V14.01,2013-06-30 18:46:00,
2013-06-30 13:47:00,68.5,64.8,29.77,NNE,13,3.0,12.0,88,0.05,,BKN075,0.08,VWS V14.01,2013-06-30 18:47:00,
2013-06-30 13:48:00,68.7,64.7,29.77,NNE,19,3.0,12.0,87,0.05,,BKN075,0.08,VWS V14.01,2013-06-30 18:48:00,
2013-06-30 13:51:00,69.2,65.5,29.77,NW,315,3.0,12.0,88,0.05,,BKN075,0.08,VWS V14.01,2013-06-30 18:51:00,
2013-06-30 13:52:00,69.3,65.3,29.77,NNW,346,1.0,12.0,87,0.05,,BKN075,0.08,VWS V14.01,2013-06-30 18:52:00,
2013-06-30 13:53:00,69.5,65.5,29.77,NW,304,0.0,12.0,87,0.05,,BKN075,0.08,VWS V14.01,2013-06-30 18:53:00,
2013-06-30 13:56:00,69.8,65.1,29.77,NNW,331,0.0,12.0,85,0.05,,BKN075,0.08,VWS V14.01,2013-06-30 18:56:00,
2013-06-30 13:57:00,70.0,65.6,29.77,NW,322,0.0,12.0,86,0.05,,BKN075,0.08,VWS V14.01,2013-06-30 18:57:00,
2013-06-30 13:58:00,70.0,65.3,29.77,NNW,338,0.0,12.0,85,0.05,,BKN075,0.08,VWS V14.01,2013-06-30 18:58:00,
2013-06-30 14:00:00,70.0,64.9,29.77,NNW,328,0.0,12.0,84,0.05,,,0.08,VWS V14.01,2013-06-30 19:00:00,
2013-06-30 14:01:00,70.0,64.9,29.77,NNE,18,6.0,11.0,84,0.05,,-RA,0.08,VWS V14.01,2013-06-30 19:01:00,
2013-06-30 14:02:00,70.0,64.6,29.77,NW,310,4.0,11.0,83,0.05,,-RA,0.08,VWS V14.01,2013-06-30 19:02:00,
2013-06-30 14:03:00,70.2,64.8,29.77,NNW,340,0.0,11.0,83,0.05,,-RA,0.08,VWS V14.01,2013-06-30 19:03:00,
2013-06-30 14:07:00,70.5,64.4,29.77,NW,323,6.0,14.0,81,0.05,,-RA,0.08,VWS V14.01,2013-06-30 19:07:00,
2013-06-30 14:08:00,70.7,64.2,29.77,NNE,12,2.0,14.0,80,0.05,,-RA,0.08,VWS V14.01,2013-06-30 19:08:00,
2013-06-30 14:09:00,70.8,64.0,29.77,NNE,22,8.0,14.0,79,0.05,,-RA,0.08,VWS V14.01,2013-06-30 19:09:00,
2013-06-30 14:12:00,71.5,64.3,29.77,North,349,0.0,14.0,78,0.05,,-RA,0.08,VWS V14.01,2013-06-30 19:12:00,
2013-06-30 14:13:00,71.7,64.1,29.77,North,350,4.0,14.0,77,0.05,,-RA,0.08,VWS V14.01,2013-06-30 19:13:00,
2013-06-30 14:14:00,71.7,64.5,29.77,NNE,17,6.0,14.0,78,0.05,,-RA,0.08,VWS V14.01,2013-06-30 19:14:00,
2013-06-30 14:17:00,71.7,63.7,29.77,NW,306,0.0,14.0,76,0.05,,-RA,0.08,VWS V14.01,2013-06-30 19:17:00,
2013-06-30 14:19:00,71.7,63.7,29.77,NW,323,0.0,14.0,76,0.05,,-RA,0.08,VWS V14.01,2013-06-30 19:19:00,
2013-06-30 14:20:00,71.5,63.2,29.77,NE,46,9.0,14.0,75,0.05,,-RA,0.08,VWS V14.01,2013-06-30 19:20:00,
2013-06-30 14:22:00,71.4,62.3,29.77,NW,315,2.0,14.0,73,0.05,,-RA,0.08,VWS V14.01,2013-06-30 19:22:00,
2013-06-30 14:23:00,71.4,62.3,29.77,NW,312,0.0,14.0,73,0.05,,-RA,0.08,VWS V14.01,2013-06-30 19:23:00,
2013-06-30 14:24:00,71.4,62.7,29.77,North,5,5.0,14.0,74,0.05,,-RA,0.08,VWS V14.01,2013-06-30 19:24:00,
2013-06-30 14:25:00,71.4,63.1,29.77,NNW,336,0.0,14.0,75,0.05,,-RA,0.08,VWS V14.01,2013-06-30 19:25:00,
2013-06-30 14:27:00,71.4,63.1,29.77,NNW,339,4.0,14.0,75,0.05,,-RA,0.08,VWS V14.01,2013-06-30 19:27:00,
2013-06-30 14:28:00,71.4,63.1,29.77,NNW,338,2.0,14.0,75,0.05,,-RA,0.08,VWS V14.01,2013-06-30 19:28:00,
2013-06-30 14:29:00,71.5,63.9,29.77,NNW,336,6.0,14.0,77,0.05,,-RA,0.08,VWS V14.01,2013-06-30 19:29:00,
2013-06-30 14:30:00,71.7,64.1,29.77,North,360,0.0,14.0,77,0.05,,-RA,0.08,VWS V14.01,2013-06-30 19:30:00,
2013-06-30 14:32:00,71.9,63.5,29.77,NW,325,5.0,11.0,75,0.00,,SCT075,0.08,VWS V14.01,2013-06-30 19:32:00,
2013-06-30 14:33:00,71.9,63.5,29.77,NW,304,3.0,11.0,75,0.00,,SCT075,0.08,VWS V14.01,2013-06-30 19:33:00,
2013-06-30 14:34:00,72.0,63.7,29.77,NE,47,3.0,11.0,75,0.00,,SCT075,0.08,VWS V14.01,2013-06-30 19:34:00,
2013-06-30 14:35:00,72.0,63.7,29.77,NNW,342,5.0,14.0,75,0.00,,SCT075,0.08,VWS V14.01,2013-06-30 19:35:00,
2013-06-30 14:38:00,72.2,64.2,29.77,NE,53,5.0,14.0,76,0.00,,SCT075,0.08,VWS V14.01,2013-06-30 19:38:00,
2013-06-30 14:39:00,72.0,64.4,29.77,North,11,7.0,14.0,77,0.01,,SCT075,0.09,VWS V14.01,2013-06-30 19:39:00,
2013-06-30 14:40:00,71.9,63.9,29.77,NNW,344,6.0,14.0,76,0.02,,SCT075,0.10,VWS V14.01,2013-06-30 19:40:00,
2013-06-30 14:43:00,71.0,63.8,29.77,North,5,2.0,14.0,78,0.02,,SCT075,0.10,VWS V14.01,2013-06-30 19:43:00,
2013-06-30 14:44:00,70.8,64.0,29.77,NNE,31,0.0,14.0,79,0.02,,SCT075,0.10,VWS V14.01,2013-06-30 19:44:00,
2013-06-30 14:45:00,70.8,64.0,29.77,NNE,30,0.0,14.0,79,0.02,,SCT100,0.10,VWS V14.01,2013-06-30 19:45:00,
2013-06-30 14:48:00,70.5,64.8,29.77,NNW,348,0.0,14.0,82,0.02,,SCT100,0.10,VWS V14.01,2013-06-30 19:48:00,
2013-06-30 14:49:00,70.5,64.8,29.77,North,349,0.0,14.0,82,0.02,,SCT100,0.10,VWS V14.01,2013-06-30 19:49:00,
2013-06-30 14:50:00,70.5,64.8,29.77,North,5,0.0,14.0,82,0.02,,SCT100,0.10,VWS V14.01,2013-06-30 19:50:00,
2013-06-30 14:53:00,70.0,64.3,29.77,North,5,5.0,14.0,82,0.06,,SCT100,0.14,VWS V14.01,2013-06-30 19:53:00,
2013-06-30 14:55:00,69.5,64.1,29.77,NW,325,4.0,14.0,83,0.08,,SCT100,0.16,VWS V14.01,2013-06-30 19:55:00,
2013-06-30 14:58:00,68.3,63.3,29.77,NE,44,0.0,14.0,84,0.10,,SCT100,0.18,VWS V14.01,2013-06-30 19:58:00,
2013-06-30 14:59:00,68.2,63.2,29.77,NNW,348,0.0,14.0,84,0.11,,SCT100,0.19,VWS V14.01,2013-06-30 19:59:00,
2013-06-30 15:00:00,68.0,63.3,29.78,NNE,26,9.0,14.0,85,0.11,,SCT100,0.19,VWS V14.01,2013-06-30 20:00:00,
2013-06-30 15:04:00,67.3,63.0,29.78,NNE,19,4.0,4.0,86,0.12,,BKN100,0.20,VWS V14.01,2013-06-30 20:04:00,
2013-06-30 15:05:00,67.2,62.9,29.78,NW,315,0.0,5.0,86,0.12,,BKN100,0.20,VWS V14.01,2013-06-30 20:05:00,
2013-06-30 15:06:00,67.0,63.0,29.78,NW,315,0.0,5.0,87,0.12,,BKN100,0.20,VWS V14.01,2013-06-30 20:06:00,
2013-06-30 15:09:00,66.8,62.8,29.78,NNW,331,1.0,8.0,87,0.12,,BKN100,0.20,VWS V14.01,2013-06-30 20:09:00,
2013-06-30 15:10:00,66.8,62.8,29.78,NNE,32,0.0,8.0,87,0.12,,BKN100,0.20,VWS V14.01,2013-06-30 20:10:00,
2013-06-30 15:11:00,66.8,62.8,29.78,NNE,14,0.0,8.0,87,0.12,,BKN100,0.20,VWS V14.01,2013-06-30 20:11:00,
2013-06-30 15:14:00,66.8,63.1,29.78,NNW,338,0.0,8.0,88,0.12,,BKN100,0.20,VWS V14.01,2013-06-30 20:14:00,
2013-06-30 15:15:00,66.8,63.1,29.77,NNW,338,0.0,8.0,88,0.13,,BKN100,0.21,VWS V14.01,2013-06-30 20:15:00,
2013-06-30 15:16:00,66.8,63.1,29.77,North,5,0.0,8.0,88,0.13,,SCT100,0.21,VWS V14.01,2013-06-30 20:16:00,
2013-06-30 15:19:00,66.8,63.1,29.77,NW,313,0.0,8.0,88,0.13,,SCT100,0.21,VWS V14.01,2013-06-30 20:19:00,
2013-06-30 15:20:00,67.0,63.3,29.77,NW,304,0.0,8.0,88,0.13,,SCT100,0.21,VWS V14.01,2013-06-30 20:20:00,
2013-06-30 15:21:00,67.0,63.3,29.77,NNW,330,4.0,8.0,88,0.13,,SCT100,0.21,VWS V14.01,2013-06-30 20:21:00,
2013-06-30 15:24:00,67.2,63.8,29.77,NW,321,0.0,8.0,89,0.13,,SCT100,0.21,VWS V14.01,2013-06-30 20:24:00,
2013-06-30 15:25:00,67.2,63.8,29.77,NW,321,0.0,8.0,89,0.13,,SCT100,0.21,VWS V14.01,2013-06-30 20:25:00,
2013-06-30 15:26:00,67.2,63.8,29.77,NW,321,0.0,8.0,89,0.13,,SCT100,0.21,VWS V14.01,2013-06-30 20:26:00,
2013-06-30 15:29:00,67.3,64.0,29.77,NW,305,0.0,8.0,89,0.13,,SCT100,0.21,VWS V14.01,2013-06-30 20:29:00,
2013-06-30 15:30:00,67.3,64.0,29.78,NW,305,0.0,8.0,89,0.13,,SCT100,0.21,VWS V14.01,2013-06-30 20:30:00,
2013-06-30 15:31:00,67.3,64.0,29.78,NW,309,0.0,0.0,89,0.13,,SCT100,0.21,VWS V14.01,2013-06-30 20:31:00,
2013-06-30 15:35:00,67.5,64.2,29.78,NW,318,0.0,3.0,89,0.14,,SCT100,0.22,VWS V14.01,2013-06-30 20:35:00,
2013-06-30 15:36:00,67.5,64.2,29.78,WNW,293,0.0,3.0,89,0.14,,SCT100,0.22,VWS V14.01,2013-06-30 20:36:00,
2013-06-30 15:40:00,67.7,64.3,29.78,WNW,301,0.0,3.0,89,0.14,,SCT100,0.22,VWS V14.01,2013-06-30 20:40:00,
2013-06-30 15:41:00,67.8,64.8,29.78,WNW,301,0.0,3.0,90,0.14,,SCT100,0.22,VWS V14.01,2013-06-30 20:41:00,
2013-06-30 15:45:00,68.2,65.2,29.77,North,9,4.0,5.0,90,0.14,,SCT100,0.22,VWS V14.01,2013-06-30 20:45:00,
2013-06-30 15:46:00,68.2,64.8,29.77,NNW,334,2.0,9.0,89,0.14,,SCT100,0.22,VWS V14.01,2013-06-30 20:46:00,
2013-06-30 15:47:00,68.2,64.8,29.77,NNW,335,0.0,9.0,89,0.14,,SCT100,0.22,VWS V14.01,2013-06-30 20:47:00,
2013-06-30 15:50:00,68.3,64.9,29.77,NW,313,4.0,9.0,89,0.14,,SCT100,0.22,VWS V14.01,2013-06-30 20:50:00,
2013-06-30 15:51:00,68.3,64.6,29.77,WNW,303,0.0,9.0,88,0.14,,SCT100,0.22,VWS V14.01,2013-06-30 20:51:00,
2013-06-30 15:52:00,68.3,64.6,29.77,NW,310,0.0,9.0,88,0.14,,SCT100,0.22,VWS V14.01,2013-06-30 20:52:00,
2013-06-30 15:55:00,68.5,64.5,29.77,NW,316,0.0,9.0,87,0.14,,SCT100,0.22,VWS V14.01,2013-06-30 20:55:00,
2013-06-30 15:56:00,68.5,64.5,29.77,NW,318,2.0,9.0,87,0.14,,SCT100,0.22,VWS V14.01,2013-06-30 20:56:00,
2013-06-30 15:57:00,68.5,64.5,29.77,NW,313,0.0,9.0,87,0.14,,SCT100,0.22,VWS V14.01,2013-06-30 20:57:00,
2013-06-30 16:00:00,68.5,64.5,29.77,NNW,333,0.0,9.0,87,0.14,,SCT100,0.22,VWS V14.01,2013-06-30 21:00:00,
2013-06-30 16:01:00,68.5,64.5,29.77,NW,306,0.0,9.0,87,0.14,,SCT100,0.22,VWS V14.01,2013-06-30 21:01:00,
2013-06-30 16:02:00,68.5,64.2,29.77,NNW,339,5.0,5.0,86,0.03,,RA,0.22,VWS V14.01,2013-06-30 21:02:00,
2013-06-30 16:05:00,68.5,64.2,29.77,NW,313,0.0,5.0,86,0.03,,RA,0.22,VWS V14.01,2013-06-30 21:05:00,
2013-06-30 16:06:00,68.5,64.2,29.77,NW,319,2.0,5.0,86,0.03,,RA,0.22,VWS V14.01,2013-06-30 21:06:00,
2013-06-30 16:07:00,68.5,64.2,29.77,NNW,340,0.0,5.0,86,0.03,,RA,0.22,VWS V14.01,2013-06-30 21:07:00,
2013-06-30 16:11:00,68.5,63.5,29.77,North,9,0.0,5.0,84,0.03,,RA,0.22,VWS V14.01,2013-06-30 21:11:00,
2013-06-30 16:12:00,68.5,63.5,29.77,North,9,0.0,5.0,84,0.03,,RA,0.22,VWS V14.01,2013-06-30 21:12:00,
2013-06-30 16:16:00,68.7,63.7,29.78,North,360,0.0,5.0,84,0.03,,-RA,0.22,VWS V14.01,2013-06-30 21:16:00,
2013-06-30 16:17:00,68.7,63.7,29.78,North,360,0.0,5.0,84,0.03,,-RA,0.22,VWS V14.01,2013-06-30 21:17:00,
2013-06-30 16:21:00,69.0,64.0,29.78,NW,322,3.0,5.0,84,0.03,,-RA,0.22,VWS V14.01,2013-06-30 21:21:00,
2013-06-30 16:22:00,69.0,63.6,29.78,NW,322,0.0,5.0,83,0.03,,-RA,0.22,VWS V14.01,2013-06-30 21:22:00,
2013-06-30 16:23:00,69.2,64.2,29.78,North,355,0.0,5.0,84,0.03,,-RA,0.22,VWS V14.01,2013-06-30 21:23:00,
2013-06-30 16:27:00,69.2,62.8,29.78,NNE,14,3.0,11.0,80,0.03,,-RA,0.22,VWS V14.01,2013-06-30 21:27:00,
2013-06-30 16:28:00,69.2,62.4,29.78,NE,51,4.0,11.0,79,0.03,,-RA,0.22,VWS V14.01,2013-06-30 21:28:00,
2013-06-30 16:30:00,69.3,61.8,29.78,NE,35,5.0,11.0,77,0.03,,,0.22,VWS V14.01,2013-06-30 21:30:00,
2013-06-30 16:32:00,69.3,61.4,29.78,North,355,0.0,6.0,76,0.01,,RA,0.22,VWS V14.01,2013-06-30 21:32:00,
2013-06-30 16:33:00,69.5,62.0,29.78,ENE,78,0.0,6.0,77,0.01,,RA,0.22,VWS V14.01,2013-06-30 21:33:00,
2013-06-30 16:37:00,69.7,61.8,29.78,NNW,348,2.0,6.0,76,0.01,,RA,0.22,VWS V14.01,2013-06-30 21:37:00,
2013-06-30 16:38:00,69.7,61.8,29.78,North,355,6.0,6.0,76,0.01,,RA,0.22,VWS V14.01,2013-06-30 21:38:00,
2013-06-30 16:42:00,69.8,61.5,29.78,North,351,0.0,6.0,75,0.01,,RA,0.22,VWS V14.01,2013-06-30 21:42:00,
2013-06-30 16:43:00,69.8,61.5,29.78,NNE,21,0.0,6.0,75,0.01,,RA,0.22,VWS V14.01,2013-06-30 21:43:00,
2013-06-30 16:44:00,70.0,61.7,29.78,North,351,0.0,6.0,75,0.01,,RA,0.22,VWS V14.01,2013-06-30 21:44:00,
2013-06-30 16:47:00,70.0,61.7,29.78,NNE,23,5.0,9.0,75,0.01,,BKN110,0.22,VWS V14.01,2013-06-30 21:47:00,
2013-06-30 16:48:00,70.0,61.3,29.78,NNE,15,0.0,10.0,74,0.01,,BKN110,0.22,VWS V14.01,2013-06-30 21:48:00,
2013-06-30 16:49:00,70.0,61.3,29.78,NE,35,6.0,10.0,74,0.01,,BKN110,0.22,VWS V14.01,2013-06-30 21:49:00,
2013-06-30 16:52:00,70.3,61.2,29.78,NNE,13,4.0,10.0,73,0.01,,BKN110,0.22,VWS V14.01,2013-06-30 21:52:00,
2013-06-30 16:53:00,70.3,61.2,29.78,NNE,15,5.0,12.0,73,0.01,,BKN110,0.22,VWS V14.01,2013-06-30 21:53:00,
2013-06-30 16:55:00,70.3,60.5,29.78,North,360,0.0,12.0,71,0.01,,BKN110,0.22,VWS V14.01,2013-06-30 21:55:00,
2013-06-30 16:57:00,70.5,61.0,29.78,NW,325,1.0,12.0,72,0.01,,BKN110,0.22,VWS V14.01,2013-06-30 21:57:00,
2013-06-30 16:58:00,70.5,61.0,29.78,NNE,22,4.0,12.0,72,0.01,,BKN110,0.22,VWS V14.01,2013-06-30 21:58:00,
2013-06-30 16:59:00,70.5,61.0,29.78,NNW,344,3.0,12.0,72,0.01,,BKN110,0.22,VWS V14.01,2013-06-30 21:59:00,
2013-06-30 17:00:00,70.5,60.7,29.77,NNE,33,0.0,12.0,71,0.01,,BKN110,0.22,VWS V14.01,2013-06-30 22:00:00,
2013-06-30 17:02:00,70.7,60.0,29.77,NNE,25,7.0,10.0,69,0.00,,,0.22,VWS V14.01,2013-06-30 22:02:00,
2013-06-30 17:03:00,70.7,59.2,29.77,WNW,294,5.0,10.0,67,0.00,,,0.22,VWS V14.01,2013-06-30 22:03:00,
2013-06-30 17:04:00,70.7,60.0,29.77,NNE,19,5.0,12.0,69,0.00,,,0.22,VWS V14.01,2013-06-30 22:04:00,
2013-06-30 17:05:00,70.8,59.3,29.77,North,5,0.0,12.0,67,0.00,,,0.22,VWS V14.01,2013-06-30 22:05:00,
2013-06-30 17:07:00,71.0,59.1,29.77,NE,37,3.0,15.0,66,0.00,,,0.22,VWS V14.01,2013-06-30 22:07:00,
2013-06-30 17:08:00,71.0,59.1,29.77,NE,43,0.0,15.0,66,0.00,,,0.22,VWS V14.01,2013-06-30 22:08:00,
2013-06-30 17:09:00,71.0,59.1,29.77,ENE,67,7.0,15.0,66,0.00,,,0.22,VWS V14.01,2013-06-30 22:09:00,
2013-06-30 17:11:00,71.2,59.3,29.77,NE,37,6.0,15.0,66,0.00,,,0.22,VWS V14.01,2013-06-30 22:11:00,
2013-06-30 17:12:00,71.2,59.3,29.77,North,360,0.0,15.0,66,0.00,,,0.22,VWS V14.01,2013-06-30 22:12:00,
2013-06-30 17:13:00,71.2,59.7,29.77,NE,40,3.0,15.0,67,0.00,,,0.22,VWS V14.01,2013-06-30 22:13:00,
2013-06-30 17:14:00,71.2,59.3,29.77,NW,322,0.0,15.0,66,0.00,,,0.22,VWS V14.01,2013-06-30 22:14:00,
2013-06-30 17:16:00,71.4,59.5,29.78,WNW,289,0.0,15.0,66,0.00,,,0.22,VWS V14.01,2013-06-30 22:16:00,
2013-06-30 17:17:00,71.4,59.9,29.78,NNE,27,6.0,15.0,67,0.00,,,0.22,VWS V14.01,2013-06-30 22:17:00,
2013-06-30 17:18:00,71.4,59.9,29.78,North,5,11.0,15.0,67,0.00,,,0.22,VWS V14.01,2013-06-30 22:18:00,
2013-06-30 17:19:00,71.4,59.5,29.78,NNW,343,11.0,15.0,66,0.00,,,0.22,VWS V14.01,2013-06-30 22:19:00,
2013-06-30 17:20:00,71.4,59.0,29.78,NNE,30,2.0,15.0,65,0.00,,,0.22,VWS V14.01,2013-06-30 22:20:00,
2013-06-30 17:21:00,71.5,59.6,29.78,NE,40,6.0,15.0,66,0.00,,,0.22,VWS V14.01,2013-06-30 22:21:00,
2013-06-30 17:23:00,71.5,59.1,29.78,NNE,18,13.0,17.0,65,0.00,,,0.22,VWS V14.01,2013-06-30 22:23:00,
2013-06-30 17:24:00,71.7,59.3,29.78,NNE,29,4.0,17.0,65,0.00,,,0.22,VWS V14.01,2013-06-30 22:24:00,
2013-06-30 17:25:00,71.7,58.5,29.78,NNE,32,3.0,17.0,63,0.00,,,0.22,VWS V14.01,2013-06-30 22:25:00,
2013-06-30 17:26:00,71.9,59.1,29.78,NE,44,13.0,17.0,64,0.00,,,0.22,VWS V14.01,2013-06-30 22:26:00,
2013-06-30 17:28:00,72.0,58.3,29.78,North,355,9.0,17.0,62,0.00,,,0.22,VWS V14.01,2013-06-30 22:28:00,
2013-06-30 17:29:00,72.2,58.5,29.78,North,355,19.0,19.0,62,0.00,,,0.22,VWS V14.01,2013-06-30 22:29:00,
2013-06-30 17:30:00,72.2,58.5,29.78,NNE,31,10.0,19.0,62,0.00,,,0.22,VWS V14.01,2013-06-30 22:30:00,
2013-06-30 17:31:00,72.4,58.7,29.78,North,5,11.0,11.0,62,0.00,,,0.22,VWS V14.01,2013-06-30 22:31:00,
2013-06-30 17:33:00,72.4,58.7,29.78,North,350,12.0,14.0,62,0.00,,,0.22,VWS V14.01,2013-06-30 22:33:00,
2013-06-30 17:34:00,72.6,58.8,29.78,NNW,344,2.0,14.0,62,0.00,,,0.22,VWS V14.01,2013-06-30 22:34:00,
2013-06-30 17:35:00,72.6,58.4,29.78,NE,34,4.0,14.0,61,0.00,,,0.22,VWS V14.01,2013-06-30 22:35:00,
2013-06-30 17:36:00,72.7,58.9,29.78,SE,136,0.0,14.0,62,0.00,,,0.22,VWS V14.01,2013-06-30 22:36:00,
2013-06-30 17:38:00,72.7,58.9,29.78,NNE,27,2.0,14.0,62,0.00,,,0.22,VWS V14.01,2013-06-30 22:38:00,
2013-06-30 17:39:00,72.7,58.9,29.78,NNE,12,7.0,14.0,62,0.00,,,0.22,VWS V14.01,2013-06-30 22:39:00,
2013-06-30 17:40:00,72.9,58.7,29.78,NE,46,6.0,14.0,61,0.00,,,0.22,VWS V14.01,2013-06-30 22:40:00,
2013-06-30 17:42:00,72.9,58.7,29.78,NNW,329,0.0,18.0,61,0.00,,,0.22,VWS V14.01,2013-06-30 22:42:00,
2013-06-30 17:43:00,72.9,59.1,29.78,NNE,21,3.0,18.0,62,0.00,,,0.22,VWS V14.01,2013-06-30 22:43:00,
2013-06-30 17:44:00,72.9,59.1,29.78,NNE,19,0.0,18.0,62,0.00,,,0.22,VWS V14.01,2013-06-30 22:44:00,
2013-06-30 17:45:00,72.9,59.1,29.78,North,350,10.0,18.0,62,0.00,,,0.22,VWS V14.01,2013-06-30 22:45:00,
2013-06-30 17:46:00,72.9,59.1,29.78,North,360,7.0,18.0,62,0.00,,CLR,0.22,VWS V14.01,2013-06-30 22:46:00,
2013-06-30 17:48:00,72.9,59.6,29.78,North,9,3.0,18.0,63,0.00,,CLR,0.22,VWS V14.01,2013-06-30 22:48:00,
2013-06-30 17:49:00,72.9,59.6,29.78,NNE,13,4.0,18.0,63,0.00,,CLR,0.22,VWS V14.01,2013-06-30 22:49:00,
2013-06-30 17:50:00,72.9,59.6,29.78,NNE,28,0.0,18.0,63,0.00,,CLR,0.22,VWS V14.01,2013-06-30 22:50:00,
2013-06-30 17:52:00,72.9,60.0,29.78,NNW,347,4.0,18.0,64,0.00,,CLR,0.22,VWS V14.01,2013-06-30 22:52:00,
2013-06-30 17:53:00,72.7,59.4,29.78,NNE,22,14.0,18.0,63,0.00,,CLR,0.22,VWS V14.01,2013-06-30 22:53:00,
2013-06-30 17:54:00,72.7,59.4,29.78,NNW,342,0.0,18.0,63,0.00,,CLR,0.22,VWS V14.01,2013-06-30 22:54:00,
2013-06-30 17:55:00,72.7,59.4,29.78,NW,319,4.0,18.0,63,0.00,,CLR,0.22,VWS V14.01,2013-06-30 22:55:00,
2013-06-30 17:57:00,72.7,59.4,29.78,NNW,337,8.0,18.0,63,0.00,,CLR,0.22,VWS V14.01,2013-06-30 22:57:00,
2013-06-30 17:58:00,72.7,59.4,29.78,North,355,5.0,18.0,63,0.00,,CLR,0.22,VWS V14.01,2013-06-30 22:58:00,
2013-06-30 18:00:00,72.7,59.4,29.78,NW,321,1.0,18.0,63,0.00,,CLR,0.22,VWS V14.01,2013-06-30 23:00:00,
2013-06-30 18:02:00,72.6,59.7,29.78,NNW,344,3.0,9.0,64,0.00,,CLR,0.22,VWS V14.01,2013-06-30 23:02:00,
2013-06-30 18:03:00,72.6,59.7,29.78,NNE,23,4.0,9.0,64,0.00,,CLR,0.22,VWS V14.01,2013-06-30 23:03:00,
2013-06-30 18:05:00,72.6,59.7,29.78,ENE,61,0.0,9.0,64,0.00,,CLR,0.22,VWS V14.01,2013-06-30 23:05:00,
2013-06-30 18:07:00,72.4,59.5,29.78,NE,49,0.0,11.0,64,0.00,,CLR,0.22,VWS V14.01,2013-06-30 23:07:00,
2013-06-30 18:08:00,72.4,59.5,29.78,NNE,12,2.0,11.0,64,0.00,,CLR,0.22,VWS V14.01,2013-06-30 23:08:00,
2013-06-30 18:10:00,72.4,59.5,29.78,NNE,17,1.0,11.0,64,0.00,,CLR,0.22,VWS V14.01,2013-06-30 23:10:00,
2013-06-30 18:11:00,72.4,59.5,29.78,NNE,22,2.0,11.0,64,0.00,,CLR,0.22,VWS V14.01,2013-06-30 23:11:00,
2013-06-30 18:12:00,72.4,59.5,29.78,NE,48,0.0,11.0,64,0.00,,CLR,0.22,VWS V14.01,2013-06-30 23:12:00,
2013-06-30 18:14:00,72.2,59.4,29.78,NNW,338,4.0,11.0,64,0.00,,CLR,0.22,VWS V14.01,2013-06-30 23:14:00,
2013-06-30 18:15:00,72.2,58.9,29.78,North,11,3.0,12.0,63,0.00,,CLR,0.22,VWS V14.01,2013-06-30 23:15:00,
2013-06-30 18:16:00,72.2,58.9,29.78,NNE,28,4.0,12.0,63,0.00,,CLR,0.22,VWS V14.01,2013-06-30 23:16:00,
2013-06-30 18:18:00,72.2,59.4,29.78,NNE,31,2.0,12.0,64,0.00,,CLR,0.22,VWS V14.01,2013-06-30 23:18:00,
2013-06-30 18:19:00,72.2,59.4,29.78,ENE,69,4.0,12.0,64,0.00,,CLR,0.22,VWS V14.01,2013-06-30 23:19:00,
2013-06-30 18:20:00,72.2,59.4,29.78,NNE,24,0.0,12.0,64,0.00,,CLR,0.22,VWS V14.01,2013-06-30 23:20:00,
2013-06-30 18:21:00,72.2,59.4,29.78,NNE,25,0.0,12.0,64,0.00,,CLR,0.22,VWS V14.01,2013-06-30 23:21:00,
2013-06-30 18:23:00,72.2,59.8,29.78,North,5,0.0,12.0,65,0.00,,CLR,0.22,VWS V14.01,2013-06-30 23:23:00,
2013-06-30 18:24:00,72.2,59.8,29.78,North,360,7.0,12.0,65,0.00,,CLR,0.22,VWS V14.01,2013-06-30 23:24:00,
2013-06-30 18:26:00,72.2,59.8,29.78,North,360,0.0,12.0,65,0.00,,CLR,0.22,VWS V14.01,2013-06-30 23:26:00,
2013-06-30 18:27:00,72.2,60.2,29.78,NNE,12,0.0,12.0,66,0.00,,CLR,0.22,VWS V14.01,2013-06-30 23:27:00,
2013-06-30 18:28:00,72.2,60.2,29.78,NNE,19,1.0,12.0,66,0.00,,CLR,0.22,VWS V14.01,2013-06-30 23:28:00,
2013-06-30 18:29:00,72.2,59.8,29.78,NE,51,4.0,12.0,65,0.00,,CLR,0.22,VWS V14.01,2013-06-30 23:29:00,
2013-06-30 18:30:00,72.2,60.2,29.79,East,94,0.0,12.0,66,0.00,,,0.22,VWS V14.01,2013-06-30 23:30:00,
2013-06-30 18:31:00,72.2,60.2,29.79,NW,319,0.0,1.0,66,0.00,,CLR,0.22,VWS V14.01,2013-06-30 23:31:00,
2013-06-30 18:32:00,72.2,60.2,29.79,NW,309,1.0,7.0,66,0.00,,CLR,0.22,VWS V14.01,2013-06-30 23:32:00,
2013-06-30 18:33:00,72.2,60.7,29.79,NNW,329,0.0,7.0,67,0.00,,CLR,0.22,VWS V14.01,2013-06-30 23:33:00,
2013-06-30 18:35:00,72.2,60.7,29.79,NNW,343,2.0,7.0,67,0.00,,CLR,0.22,VWS V14.01,2013-06-30 23:35:00,
2013-06-30 18:36:00,72.2,60.7,29.79,NNW,348,5.0,7.0,67,0.00,,CLR,0.22,VWS V14.01,2013-06-30 23:36:00,
2013-06-30 18:37:00,72.2,60.2,29.79,North,11,0.0,7.0,66,0.00,,CLR,0.22,VWS V14.01,2013-06-30 23:37:00,
2013-06-30 18:39:00,72.2,60.2,29.79,North,351,0.0,7.0,66,0.00,,CLR,0.22,VWS V14.01,2013-06-30 23:39:00,
2013-06-30 18:40:00,72.2,60.7,29.79,North,355,0.0,7.0,67,0.00,,CLR,0.22,VWS V14.01,2013-06-30 23:40:00,
2013-06-30 18:41:00,72.2,60.2,29.79,NNW,340,2.0,10.0,66,0.00,,CLR,0.22,VWS V14.01,2013-06-30 23:41:00,
2013-06-30 18:42:00,72.2,60.2,29.79,NNW,334,0.0,10.0,66,0.00,,CLR,0.22,VWS V14.01,2013-06-30 23:42:00,
2013-06-30 18:44:00,72.2,60.7,29.79,NNW,329,5.0,10.0,67,0.00,,CLR,0.22,VWS V14.01,2013-06-30 23:44:00,
2013-06-30 18:45:00,72.2,60.2,29.80,NNE,19,5.0,10.0,66,0.00,,CLR,0.22,VWS V14.01,2013-06-30 23:45:00,
2013-06-30 18:46:00,72.0,60.0,29.80,NNW,345,1.0,10.0,66,0.00,,SCT110,0.22,VWS V14.01,2013-06-30 23:46:00,
2013-06-30 18:47:00,72.0,60.0,29.80,NE,49,5.0,10.0,66,0.00,,SCT110,0.22,VWS V14.01,2013-06-30 23:47:00,
2013-06-30 18:49:00,72.0,60.5,29.80,North,355,0.0,10.0,67,0.00,,SCT110,0.22,VWS V14.01,2013-06-30 23:49:00,
2013-06-30 18:50:00,72.0,60.5,29.80,NE,52,4.0,10.0,67,0.00,,SCT110,0.22,VWS V14.01,2013-06-30 23:50:00,
2013-06-30 18:51:00,72.0,60.5,29.80,North,360,0.0,10.0,67,0.00,,SCT110,0.22,VWS V14.01,2013-06-30 23:51:00,
2013-06-30 18:52:00,72.0,60.5,29.80,North,11,3.0,10.0,67,0.00,,SCT110,0.22,VWS V14.01,2013-06-30 23:52:00,
2013-06-30 18:53:00,72.0,60.5,29.80,NNW,336,0.0,10.0,67,0.00,,SCT110,0.22,VWS V14.01,2013-06-30 23:53:00,
2013-06-30 18:54:00,72.0,60.5,29.80,North,360,5.0,10.0,67,0.00,,SCT110,0.22,VWS V14.01,2013-06-30 23:54:00,
2013-06-30 18:55:00,72.0,60.5,29.80,NNE,31,0.0,10.0,67,0.00,,SCT110,0.22,VWS V14.01,2013-06-30 23:55:00,
2013-06-30 18:56:00,72.0,60.5,29.80,North,355,3.0,10.0,67,0.00,,SCT110,0.22,VWS V14.01,2013-06-30 23:56:00,
2013-06-30 18:58:00,72.0,60.9,29.80,ENE,66,3.0,10.0,68,0.00,,SCT110,0.22,VWS V14.01,2013-06-30 23:58:00,
2013-06-30 19:00:00,72.0,60.9,29.80,North,349,3.0,10.0,68,0.00,,SCT110,0.22,VWS V14.01,2013-07-01 00:00:00,
2013-06-30 19:01:00,72.0,60.5,29.80,NNE,19,3.0,10.0,67,0.00,,SCT120,0.22,VWS V14.01,2013-07-01 00:01:00,
2013-06-30 19:03:00,72.0,60.5,29.80,NNE,21,7.0,12.0,67,0.00,,SCT120,0.22,VWS V14.01,2013-07-01 00:03:00,
2013-06-30 19:05:00,71.9,60.4,29.80,North,355,6.0,12.0,67,0.00,,SCT120,0.22,VWS V14.01,2013-07-01 00:05:00,
2013-06-30 19:06:00,71.9,60.8,29.80,North,355,4.0,12.0,68,0.00,,SCT120,0.22,VWS V14.01,2013-07-01 00:06:00,
2013-06-30 19:08:00,71.9,60.8,29.80,NW,315,0.0,12.0,68,0.00,,SCT120,0.22,VWS V14.01,2013-07-01 00:08:00,
2013-06-30 19:10:00,71.9,60.8,29.80,North,11,6.0,12.0,68,0.00,,SCT120,0.22,VWS V14.01,2013-07-01 00:10:00,
2013-06-30 19:11:00,71.9,60.8,29.80,WNW,290,2.0,12.0,68,0.00,,SCT120,0.22,VWS V14.01,2013-07-01 00:11:00,
2013-06-30 19:12:00,71.9,60.8,29.80,NNE,17,0.0,12.0,68,0.00,,SCT120,0.22,VWS V14.01,2013-07-01 00:12:00,
2013-06-30 19:13:00,71.9,60.8,29.80,NW,317,7.0,12.0,68,0.00,,SCT120,0.22,VWS V14.01,2013-07-01 00:13:00,
2013-06-30 19:15:00,71.9,60.8,29.80,NW,322,0.0,12.0,68,0.00,,SCT120,0.22,VWS V14.01,2013-07-01 00:15:00,
2013-06-30 19:17:00,71.9,60.8,29.80,NNW,333,5.0,12.0,68,0.00,,SCT120,0.22,VWS V14.01,2013-07-01 00:17:00,
2013-06-30 19:18:00,71.9,61.2,29.80,NNW,335,0.0,12.0,69,0.00,,SCT120,0.22,VWS V14.01,2013-07-01 00:18:00,
2013-06-30 19:21:00,71.7,60.6,29.80,North,10,1.0,12.0,68,0.00,,SCT120,0.22,VWS V14.01,2013-07-01 00:21:00,
2013-06-30 19:22:00,71.7,61.0,29.80,NNW,331,0.0,12.0,69,0.00,,SCT120,0.22,VWS V14.01,2013-07-01 00:22:00,
2013-06-30 19:23:00,71.7,61.0,29.80,North,355,5.0,12.0,69,0.00,,SCT120,0.22,VWS V14.01,2013-07-01 00:23:00,
2013-06-30 19:26:00,71.7,61.0,29.80,NW,323,0.0,12.0,69,0.00,,SCT120,0.22,VWS V14.01,2013-07-01 00:26:00,
2013-06-30 19:27:00,71.7,61.0,29.80,NW,311,5.0,12.0,69,0.00,,SCT120,0.22,VWS V14.01,2013-07-01 00:27:00,
2013-06-30 19:28:00,71.7,61.0,29.80,NNW,329,0.0,12.0,69,0.00,,SCT120,0.22,VWS V14.01,2013-07-01 00:28:00,
2013-06-30 19:30:00,71.7,61.0,29.79,NW,316,0.0,12.0,69,0.00,,,0.22,VWS V14.01,2013-07-01 00:30:00,
2013-06-30 19:31:00,71.7,61.0,29.79,North,355,2.0,5.0,69,0.00,,SCT120,0.22,VWS V14.01,2013-07-01 00:31:00,
2013-06-30 19:32:00,71.7,61.0,29.79,North,5,6.0,6.0,69,0.00,,SCT120,0.22,VWS V14.01,2013-07-01 00:32:00,
2013-06-30 19:33:00,71.7,61.0,29.79,NNE,28,7.0,7.0,69,0.00,,SCT120,0.22,VWS V14.01,2013-07-01 00:33:00,
2013-06-30 19:34:00,71.7,61.0,29.79,ENE,57,3.0,7.0,69,0.00,,SCT120,0.22,VWS V14.01,2013-07-01 00:34:00,
2013-06-30 19:36:00,71.7,61.0,29.79,NW,319,0.0,7.0,69,0.00,,SCT120,0.22,VWS V14.01,2013-07-01 00:36:00,
2013-06-30 19:37:00,71.5,60.8,29.79,NE,34,5.0,7.0,69,0.00,,SCT120,0.22,VWS V14.01,2013-07-01 00:37:00,
2013-06-30 19:38:00,71.5,60.4,29.79,North,355,8.0,9.0,68,0.00,,SCT120,0.22,VWS V14.01,2013-07-01 00:38:00,
2013-06-30 19:39:00,71.5,60.4,29.79,NNE,22,5.0,9.0,68,0.00,,SCT120,0.22,VWS V14.01,2013-07-01 00:39:00,
2013-06-30 19:42:00,71.5,60.8,29.79,NE,42,4.0,9.0,69,0.00,,SCT120,0.22,VWS V14.01,2013-07-01 00:42:00,
2013-06-30 19:44:00,71.5,60.4,29.79,NE,38,11.0,11.0,68,0.00,,SCT120,0.22,VWS V14.01,2013-07-01 00:44:00,
2013-06-30 19:47:00,71.7,60.6,29.79,North,5,1.0,12.0,68,0.00,,BKN110,0.22,VWS V14.01,2013-07-01 00:47:00,
2013-06-30 19:49:00,71.7,60.6,29.79,North,5,0.0,12.0,68,0.00,,BKN110,0.22,VWS V14.01,2013-07-01 00:49:00,
2013-06-30 19:50:00,71.7,60.6,29.79,North,5,5.0,12.0,68,0.00,,BKN110,0.22,VWS V14.01,2013-07-01 00:50:00,
2013-06-30 19:52:00,71.7,60.6,29.79,NNW,347,3.0,12.0,68,0.00,,BKN110,0.22,VWS V14.01,2013-07-01 00:52:00,
2013-06-30 19:53:00,71.7,60.6,29.79,NNE,13,4.0,12.0,68,0.00,,BKN110,0.22,VWS V14.01,2013-07-01 00:53:00,
2013-06-30 19:55:00,71.7,60.6,29.79,NNW,344,0.0,12.0,68,0.00,,BKN110,0.22,VWS V14.01,2013-07-01 00:55:00,
2013-06-30 19:57:00,71.7,60.6,29.79,NE,36,4.0,12.0,68,0.00,,BKN110,0.22,VWS V14.01,2013-07-01 00:57:00,
2013-06-30 19:58:00,71.7,60.2,29.79,NNE,17,0.0,12.0,67,0.00,,BKN110,0.22,VWS V14.01,2013-07-01 00:58:00,
2013-06-30 20:00:00,71.7,60.6,29.80,North,360,0.0,12.0,68,0.00,,BKN110,0.22,VWS V14.01,2013-07-01 01:00:00,
2013-06-30 20:02:00,71.7,60.6,29.80,North,10,2.0,7.0,68,0.00,,SCT120,0.22,VWS V14.01,2013-07-01 01:02:00,
2013-06-30 20:03:00,71.7,60.6,29.80,NNW,334,4.0,7.0,68,0.00,,SCT120,0.22,VWS V14.01,2013-07-01 01:03:00,
2013-06-30 20:05:00,71.7,60.2,29.80,North,360,0.0,7.0,67,0.00,,SCT120,0.22,VWS V14.01,2013-07-01 01:05:00,
2013-06-30 20:07:00,71.7,60.2,29.80,North,360,5.0,7.0,67,0.00,,SCT120,0.22,VWS V14.01,2013-07-01 01:07:00,
2013-06-30 20:08:00,71.7,60.2,29.80,NNW,348,0.0,7.0,67,0.00,,SCT120,0.22,VWS V14.01,2013-07-01 01:08:00,
2013-06-30 20:10:00,71.7,60.2,29.80,NNW,340,5.0,13.0,67,0.00,,SCT120,0.22,VWS V14.01,2013-07-01 01:10:00,
2013-06-30 20:11:00,71.7,60.2,29.80,North,350,6.0,13.0,67,0.00,,SCT120,0.22,VWS V14.01,2013-07-01 01:11:00,
2013-06-30 20:13:00,71.5,60.0,29.80,North,355,0.0,13.0,67,0.00,,SCT120,0.22,VWS V14.01,2013-07-01 01:13:00,
2013-06-30 20:15:00,71.5,60.4,29.80,NW,314,4.0,13.0,68,0.00,,SCT120,0.22,VWS V14.01,2013-07-01 01:15:00,
2013-06-30 20:16:00,71.5,60.4,29.80,NW,325,0.0,13.0,68,0.00,,SCT120,0.22,VWS V14.01,2013-07-01 01:16:00,
2013-06-30 20:18:00,71.4,60.3,29.80,North,11,0.0,13.0,68,0.00,,SCT120,0.22,VWS V14.01,2013-07-01 01:18:00,
2013-06-30 20:21:00,71.4,60.3,29.80,NNW,348,0.0,13.0,68,0.00,,SCT120,0.22,VWS V14.01,2013-07-01 01:21:00,
2013-06-30 20:23:00,71.4,59.9,29.80,NNE,12,0.0,13.0,67,0.00,,SCT120,0.22,VWS V14.01,2013-07-01 01:23:00,
2013-06-30 20:26:00,71.4,60.3,29.80,NNW,348,0.0,13.0,68,0.00,,SCT120,0.22,VWS V14.01,2013-07-01 01:26:00,
2013-06-30 20:28:00,71.2,60.1,29.80,NNW,333,0.0,13.0,68,0.00,,SCT120,0.22,VWS V14.01,2013-07-01 01:28:00,
2013-06-30 20:29:00,71.2,60.1,29.80,NNE,24,5.0,13.0,68,0.00,,SCT120,0.22,VWS V14.01,2013-07-01 01:29:00,
2013-06-30 20:30:00,71.0,59.9,29.80,North,355,7.0,13.0,68,0.00,,,0.22,VWS V14.01,2013-07-01 01:30:00,
2013-06-30 20:31:00,71.0,59.9,29.80,NNE,19,5.0,5.0,68,0.00,,SCT120,0.22,VWS V14.01,2013-07-01 01:31:00,
2013-06-30 20:33:00,71.0,59.9,29.80,NE,56,7.0,13.0,68,0.00,,SCT120,0.22,VWS V14.01,2013-07-01 01:33:00,
2013-06-30 20:34:00,71.0,59.9,29.80,NNE,19,10.0,13.0,68,0.00,,SCT120,0.22,VWS V14.01,2013-07-01 01:34:00,
2013-06-30 20:36:00,71.0,59.9,29.80,NW,308,0.0,13.0,68,0.00,,SCT120,0.22,VWS V14.01,2013-07-01 01:36:00,
2013-06-30 20:38:00,70.8,59.7,29.80,North,5,0.0,13.0,68,0.00,,SCT120,0.22,VWS V14.01,2013-07-01 01:38:00,
2013-06-30 20:39:00,70.8,59.7,29.80,West,277,0.0,13.0,68,0.00,,SCT120,0.22,VWS V14.01,2013-07-01 01:39:00,
2013-06-30 20:42:00,70.8,60.1,29.80,NNW,344,0.0,15.0,69,0.00,,SCT120,0.22,VWS V14.01,2013-07-01 01:42:00,
2013-06-30 20:43:00,70.7,60.0,29.80,NNW,331,0.0,15.0,69,0.00,,SCT120,0.22,VWS V14.01,2013-07-01 01:43:00,
2013-06-30 20:44:00,70.7,60.0,29.80,NNE,18,5.0,15.0,69,0.00,,SCT120,0.22,VWS V14.01,2013-07-01 01:44:00,
2013-06-30 20:47:00,70.5,59.8,29.80,North,350,9.0,15.0,69,0.00,,CLR,0.22,VWS V14.01,2013-07-01 01:47:00,
2013-06-30 20:49:00,70.5,59.8,29.80,North,9,0.0,15.0,69,0.00,,CLR,0.22,VWS V14.01,2013-07-01 01:49:00,
2013-06-30 20:52:00,70.3,60.1,29.80,North,5,0.0,15.0,70,0.00,,CLR,0.22,VWS V14.01,2013-07-01 01:52:00,
2013-06-30 20:53:00,70.3,60.1,29.80,North,11,0.0,15.0,70,0.00,,CLR,0.22,VWS V14.01,2013-07-01 01:53:00,
2013-06-30 20:54:00,70.3,60.1,29.80,North,355,0.0,15.0,70,0.00,,CLR,0.22,VWS V14.01,2013-07-01 01:54:00,
2013-06-30 20:57:00,70.3,60.1,29.80,North,10,0.0,15.0,70,0.00,,CLR,0.22,VWS V14.01,2013-07-01 01:57:00,
2013-06-30 20:58:00,70.2,60.0,29.80,North,355,0.0,15.0,70,0.00,,CLR,0.22,VWS V14.01,2013-07-01 01:58:00,
2013-06-30 20:59:00,70.2,60.0,29.80,North,5,0.0,15.0,70,0.00,,CLR,0.22,VWS V14.01,2013-07-01 01:59:00,
2013-06-30 21:00:00,70.2,60.0,29.81,North,5,0.0,15.0,70,0.00,,,0.22,VWS V14.01,2013-07-01 02:00:00,
2013-06-30 21:02:00,70.2,60.4,29.81,North,360,0.0,1.0,71,0.00,,CLR,0.22,VWS V14.01,2013-07-01 02:02:00,
2013-06-30 21:03:00,70.0,60.2,29.81,NNE,28,0.0,1.0,71,0.00,,CLR,0.22,VWS V14.01,2013-07-01 02:03:00,
2013-06-30 21:04:00,70.0,60.2,29.81,North,5,0.0,4.0,71,0.00,,CLR,0.22,VWS V14.01,2013-07-01 02:04:00,
2013-06-30 21:05:00,70.0,60.2,29.81,NW,321,0.0,4.0,71,0.00,,CLR,0.22,VWS V14.01,2013-07-01 02:05:00,
2013-06-30 21:08:00,70.0,60.2,29.81,North,350,0.0,6.0,71,0.00,,CLR,0.22,VWS V14.01,2013-07-01 02:08:00,
2013-06-30 21:10:00,69.8,60.0,29.81,NNW,334,0.0,6.0,71,0.00,,CLR,0.22,VWS V14.01,2013-07-01 02:10:00,
2013-06-30 21:13:00,69.8,60.0,29.81,NNW,333,0.0,6.0,71,0.00,,CLR,0.22,VWS V14.01,2013-07-01 02:13:00,
2013-06-30 21:14:00,69.8,60.0,29.81,North,360,0.0,6.0,71,0.00,,CLR,0.22,VWS V14.01,2013-07-01 02:14:00,
2013-06-30 21:15:00,69.7,59.9,29.82,NW,313,0.0,6.0,71,0.00,,CLR,0.22,VWS V14.01,2013-07-01 02:15:00,
2013-06-30 21:16:00,69.7,59.9,29.82,NW,313,0.0,6.0,71,0.00,,CLR,0.22,VWS V14.01,2013-07-01 02:16:00,
2013-06-30 21:18:00,69.7,59.9,29.82,North,5,0.0,6.0,71,0.00,,CLR,0.22,VWS V14.01,2013-07-01 02:18:00,
2013-06-30 21:19:00,69.7,59.9,29.82,NNW,346,3.0,6.0,71,0.00,,CLR,0.22,VWS V14.01,2013-07-01 02:19:00,
2013-06-30 21:20:00,69.7,59.9,29.82,NNW,348,0.0,6.0,71,0.00,,CLR,0.22,VWS V14.01,2013-07-01 02:20:00,
2013-06-30 21:22:00,69.5,59.7,29.82,North,11,1.0,6.0,71,0.00,,CLR,0.22,VWS V14.01,2013-07-01 02:22:00,
2013-06-30 21:23:00,69.5,59.7,29.82,NNW,340,0.0,6.0,71,0.00,,CLR,0.22,VWS V14.01,2013-07-01 02:23:00,
2013-06-30 21:24:00,69.5,59.7,29.82,NW,325,0.0,6.0,71,0.00,,CLR,0.22,VWS V14.01,2013-07-01 02:24:00,
2013-06-30 21:25:00,69.5,59.7,29.82,NW,318,0.0,6.0,71,0.00,,CLR,0.22,VWS V14.01,2013-07-01 02:25:00,
2013-06-30 21:27:00,69.5,59.7,29.82,NNW,329,0.0,6.0,71,0.00,,CLR,0.22,VWS V14.01,2013-07-01 02:27:00,
2013-06-30 21:28:00,69.5,59.7,29.82,NW,320,0.0,6.0,71,0.00,,CLR,0.22,VWS V14.01,2013-07-01 02:28:00,
2013-06-30 21:29:00,69.5,59.7,29.82,NW,317,0.0,6.0,71,0.00,,CLR,0.22,VWS V14.01,2013-07-01 02:29:00,
2013-06-30 21:30:00,69.3,59.5,29.82,NW,317,0.0,6.0,71,0.00,,CLR,0.22,VWS V14.01,2013-07-01 02:30:00,
2013-06-30 21:31:00,69.3,59.9,29.82,NW,321,0.0,0.0,72,0.00,,CLR,0.22,VWS V14.01,2013-07-01 02:31:00,
2013-06-30 21:32:00,69.3,59.9,29.82,North,5,4.0,5.0,72,0.00,,CLR,0.22,VWS V14.01,2013-07-01 02:32:00,
2013-06-30 21:33:00,69.3,59.9,29.82,North,350,0.0,5.0,72,0.00,,CLR,0.22,VWS V14.01,2013-07-01 02:33:00,
2013-06-30 21:34:00,69.3,59.9,29.82,NW,321,0.0,5.0,72,0.00,,CLR,0.22,VWS V14.01,2013-07-01 02:34:00,
2013-06-30 21:35:00,69.3,59.9,29.82,NW,321,0.0,5.0,72,0.00,,CLR,0.22,VWS V14.01,2013-07-01 02:35:00,
2013-06-30 21:36:00,69.2,59.8,29.82,NW,321,0.0,5.0,72,0.00,,CLR,0.22,VWS V14.01,2013-07-01 02:36:00,
2013-06-30 21:37:00,69.2,59.8,29.82,NNW,334,0.0,7.0,72,0.00,,CLR,0.22,VWS V14.01,2013-07-01 02:37:00,
2013-06-30 21:38:00,69.2,59.8,29.82,NNW,335,0.0,7.0,72,0.00,,CLR,0.22,VWS V14.01,2013-07-01 02:38:00,
2013-06-30 21:40:00,69.2,59.8,29.82,NNW,338,0.0,7.0,72,0.00,,CLR,0.22,VWS V14.01,2013-07-01 02:40:00,
2013-06-30 21:41:00,69.2,59.8,29.82,NW,320,0.0,9.0,72,0.00,,CLR,0.22,VWS V14.01,2013-07-01 02:41:00,
2013-06-30 21:42:00,69.2,59.8,29.82,NNW,339,0.0,9.0,72,0.00,,CLR,0.22,VWS V14.01,2013-07-01 02:42:00,
2013-06-30 21:43:00,69.3,59.9,29.82,North,349,0.0,9.0,72,0.00,,CLR,0.22,VWS V14.01,2013-07-01 02:43:00,
2013-06-30 21:45:00,69.3,59.5,29.83,NE,39,4.0,9.0,71,0.00,,CLR,0.22,VWS V14.01,2013-07-01 02:45:00,
2013-06-30 21:46:00,69.3,59.5,29.83,NNW,327,0.0,9.0,71,0.00,,CLR,0.22,VWS V14.01,2013-07-01 02:46:00,
2013-06-30 21:48:00,69.5,59.7,29.83,NW,325,0.0,9.0,71,0.00,,CLR,0.22,VWS V14.01,2013-07-01 02:48:00,
2013-06-30 21:50:00,69.5,60.1,29.83,NW,321,0.0,9.0,72,0.00,,CLR,0.22,VWS V14.01,2013-07-01 02:50:00,
2013-06-30 21:51:00,69.3,59.9,29.83,NNE,30,5.0,9.0,72,0.00,,CLR,0.22,VWS V14.01,2013-07-01 02:51:00,
2013-06-30 21:52:00,69.3,59.9,29.83,North,5,9.0,11.0,72,0.00,,CLR,0.22,VWS V14.01,2013-07-01 02:52:00,
2013-06-30 21:53:00,69.3,59.5,29.83,NW,313,0.0,11.0,71,0.00,,CLR,0.22,VWS V14.01,2013-07-01 02:53:00,
2013-06-30 21:54:00,69.5,59.7,29.83,NNW,331,0.0,11.0,71,0.00,,CLR,0.22,VWS V14.01,2013-07-01 02:54:00,
2013-06-30 21:55:00,69.5,59.7,29.83,NW,321,1.0,11.0,71,0.00,,CLR,0.22,VWS V14.01,2013-07-01 02:55:00,
2013-06-30 21:56:00,69.5,59.7,29.83,North,355,0.0,11.0,71,0.00,,CLR,0.22,VWS V14.01,2013-07-01 02:56:00,
2013-06-30 21:57:00,69.5,59.7,29.83,North,5,0.0,11.0,71,0.00,,CLR,0.22,VWS V14.01,2013-07-01 02:57:00,
2013-06-30 21:58:00,69.5,59.7,29.83,North,355,1.0,11.0,71,0.00,,CLR,0.22,VWS V14.01,2013-07-01 02:58:00,
2013-06-30 21:59:00,69.5,59.7,29.83,NW,325,0.0,11.0,71,0.00,,CLR,0.22,VWS V14.01,2013-07-01 02:59:00,
2013-06-30 22:00:00,69.5,59.7,29.83,NNE,22,0.0,11.0,71,0.00,,CLR,0.22,VWS V14.01,2013-07-01 03:00:00,
2013-06-30 22:01:00,69.5,59.3,29.83,North,5,0.0,10.0,70,0.00,,SCT100,0.22,VWS V14.01,2013-07-01 03:01:00,
2013-06-30 22:02:00,69.5,59.3,29.83,North,360,0.0,10.0,70,0.00,,SCT100,0.22,VWS V14.01,2013-07-01 03:02:00,
2013-06-30 22:03:00,69.5,59.3,29.83,North,5,0.0,10.0,70,0.00,,SCT100,0.22,VWS V14.01,2013-07-01 03:03:00,
2013-06-30 22:04:00,69.5,59.3,29.83,North,360,5.0,10.0,70,0.00,,SCT100,0.22,VWS V14.01,2013-07-01 03:04:00,
2013-06-30 22:06:00,69.7,59.1,29.83,NNE,17,0.0,12.0,69,0.00,,SCT100,0.22,VWS V14.01,2013-07-01 03:06:00,
2013-06-30 22:07:00,69.7,59.5,29.83,WNW,303,0.0,12.0,70,0.00,,SCT100,0.22,VWS V14.01,2013-07-01 03:07:00,
2013-06-30 22:08:00,69.7,59.1,29.83,NW,318,5.0,12.0,69,0.00,,SCT100,0.22,VWS V14.01,2013-07-01 03:08:00,
2013-06-30 22:09:00,69.7,59.1,29.83,North,11,6.0,12.0,69,0.00,,SCT100,0.22,VWS V14.01,2013-07-01 03:09:00,
2013-06-30 22:11:00,69.7,59.1,29.83,North,350,0.0,12.0,69,0.00,,SCT100,0.22,VWS V14.01,2013-07-01 03:11:00,
2013-06-30 22:12:00,69.8,59.2,29.83,NNW,330,0.0,12.0,69,0.00,,SCT100,0.22,VWS V14.01,2013-07-01 03:12:00,
2013-06-30 22:14:00,69.8,59.2,29.83,NW,318,0.0,12.0,69,0.00,,SCT100,0.22,VWS V14.01,2013-07-01 03:14:00,
2013-06-30 22:16:00,69.8,59.2,29.83,North,5,0.0,12.0,69,0.00,,CLR,0.22,VWS V14.01,2013-07-01 03:16:00,
2013-06-30 22:17:00,69.8,59.2,29.83,NNW,329,0.0,12.0,69,0.00,,CLR,0.22,VWS V14.01,2013-07-01 03:17:00,
2013-06-30 22:19:00,69.8,58.8,29.83,NNW,332,0.0,13.0,68,0.00,,CLR,0.22,VWS V14.01,2013-07-01 03:19:00,
2013-06-30 22:22:00,69.8,58.8,29.83,NE,45,6.0,13.0,68,0.00,,CLR,0.22,VWS V14.01,2013-07-01 03:22:00,
2013-06-30 22:24:00,69.8,57.9,29.83,NNW,336,0.0,13.0,66,0.00,,CLR,0.22,VWS V14.01,2013-07-01 03:24:00,
2013-06-30 22:27:00,70.0,57.7,29.83,North,360,6.0,13.0,65,0.00,,CLR,0.22,VWS V14.01,2013-07-01 03:27:00,
2013-06-30 22:29:00,70.0,57.7,29.83,NNE,30,3.0,13.0,65,0.00,,CLR,0.22,VWS V14.01,2013-07-01 03:29:00,
2013-06-30 22:30:00,70.2,57.9,29.84,NNE,18,3.0,13.0,65,0.00,,,0.22,VWS V14.01,2013-07-01 03:30:00,
2013-06-30 22:32:00,70.2,57.9,29.84,North,11,0.0,6.0,65,0.00,,SCT100,0.22,VWS V14.01,2013-07-01 03:32:00,
2013-06-30 22:34:00,70.2,57.9,29.84,North,355,0.0,6.0,65,0.00,,SCT100,0.22,VWS V14.01,2013-07-01 03:34:00,
2013-06-30 22:37:00,70.2,57.9,29.84,NNW,332,0.0,14.0,65,0.00,,SCT100,0.22,VWS V14.01,2013-07-01 03:37:00,
2013-06-30 22:39:00,70.2,57.5,29.84,North,350,0.0,14.0,64,0.00,,SCT100,0.22,VWS V14.01,2013-07-01 03:39:00,
2013-06-30 22:40:00,70.2,57.5,29.84,NNE,26,1.0,14.0,64,0.00,,SCT100,0.22,VWS V14.01,2013-07-01 03:40:00,
2013-06-30 22:42:00,70.2,57.9,29.84,NNW,333,0.0,14.0,65,0.00,,SCT100,0.22,VWS V14.01,2013-07-01 03:42:00,
2013-06-30 22:45:00,70.0,57.7,29.84,WNW,298,0.0,14.0,65,0.00,,SCT100,0.22,VWS V14.01,2013-07-01 03:45:00,
2013-06-30 22:47:00,70.0,57.7,29.84,NNW,331,0.0,14.0,65,0.00,,BKN100,0.22,VWS V14.01,2013-07-01 03:47:00,
2013-06-30 22:48:00,70.0,57.7,29.84,NNW,331,0.0,14.0,65,0.00,,BKN100,0.22,VWS V14.01,2013-07-01 03:48:00,
2013-06-30 22:50:00,70.0,57.7,29.84,NNW,330,5.0,14.0,65,0.00,,BKN100,0.22,VWS V14.01,2013-07-01 03:50:00,
2013-06-30 22:52:00,69.8,57.5,29.84,NNW,344,2.0,14.0,65,0.00,,BKN100,0.22,VWS V14.01,2013-07-01 03:52:00,
2013-06-30 22:53:00,69.8,57.5,29.84,NNW,344,0.0,14.0,65,0.00,,BKN100,0.22,VWS V14.01,2013-07-01 03:53:00,
2013-06-30 22:55:00,69.8,57.5,29.84,NNW,336,0.0,14.0,65,0.00,,BKN100,0.22,VWS V14.01,2013-07-01 03:55:00,
2013-06-30 22:58:00,69.7,57.4,29.84,North,355,0.0,14.0,65,0.00,,BKN100,0.22,VWS V14.01,2013-07-01 03:58:00,
2013-06-30 23:00:00,69.7,57.4,29.84,NNE,17,4.0,14.0,65,0.00,,BKN100,0.22,VWS V14.01,2013-07-01 04:00:00,
2013-06-30 23:01:00,69.7,57.4,29.84,NNE,19,3.0,3.0,65,0.00,,BKN100,0.22,VWS V14.01,2013-07-01 04:01:00,
2013-06-30 23:06:00,69.8,57.5,29.84,NNE,13,0.0,8.0,65,0.00,,OVC060,0.22,VWS V14.01,2013-07-01 04:06:00,
2013-06-30 23:11:00,69.7,57.4,29.84,NW,319,0.0,8.0,65,0.00,,OVC060,0.22,VWS V14.01,2013-07-01 04:11:00,
2013-06-30 23:16:00,69.5,57.7,29.83,NNW,329,0.0,8.0,66,0.00,,BKN100,0.22,VWS V14.01,2013-07-01 04:16:00,
2013-06-30 23:17:00,69.5,57.7,29.83,North,350,3.0,8.0,66,0.00,,BKN100,0.22,VWS V14.01,2013-07-01 04:17:00,
2013-06-30 23:21:00,69.3,57.9,29.83,North,9,0.0,8.0,67,0.00,,BKN100,0.22,VWS V14.01,2013-07-01 04:21:00,
2013-06-30 23:22:00,69.3,57.9,29.83,North,355,0.0,8.0,67,0.00,,BKN100,0.22,VWS V14.01,2013-07-01 04:22:00,
2013-06-30 23:26:00,69.2,57.8,29.83,NNE,22,0.0,8.0,67,0.00,,BKN100,0.22,VWS V14.01,2013-07-01 04:26:00,
2013-06-30 23:27:00,69.2,57.8,29.83,NNE,15,3.0,8.0,67,0.00,,BKN100,0.22,VWS V14.01,2013-07-01 04:27:00,
2013-06-30 23:30:00,69.2,58.2,29.84,North,5,0.0,8.0,68,0.00,,,0.22,VWS V14.01,2013-07-01 04:30:00,
2013-06-30 23:31:00,69.2,58.2,29.84,North,355,0.0,0.0,68,0.00,,OVC060,0.22,VWS V14.01,2013-07-01 04:31:00,
2013-06-30 23:32:00,69.2,58.2,29.84,NNW,344,0.0,0.0,68,0.00,,OVC060,0.22,VWS V14.01,2013-07-01 04:32:00,
2013-06-30 23:33:00,69.2,58.6,29.84,NNW,337,0.0,0.0,69,0.00,,OVC060,0.22,VWS V14.01,2013-07-01 04:33:00,
2013-06-30 23:36:00,69.0,58.4,29.84,NW,317,0.0,4.0,69,0.00,,OVC060,0.22,VWS V14.01,2013-07-01 04:36:00,
2013-06-30 23:37:00,69.0,58.4,29.84,NW,313,0.0,4.0,69,0.00,,OVC060,0.22,VWS V14.01,2013-07-01 04:37:00,
2013-06-30 23:38:00,68.8,58.2,29.84,NW,319,0.0,4.0,69,0.00,,OVC060,0.22,VWS V14.01,2013-07-01 04:38:00,
2013-06-30 23:41:00,68.8,58.2,29.84,North,5,0.0,4.0,69,0.00,,OVC060,0.22,VWS V14.01,2013-07-01 04:41:00,
2013-06-30 23:42:00,68.8,58.2,29.84,NNW,347,0.0,4.0,69,0.00,,OVC060,0.22,VWS V14.01,2013-07-01 04:42:00,
2013-06-30 23:43:00,68.7,58.1,29.84,NNW,327,0.0,4.0,69,0.00,,OVC060,0.22,VWS V14.01,2013-07-01 04:43:00,
2013-06-30 23:46:00,68.7,58.1,29.84,NNW,335,0.0,4.0,69,0.00,,OVC070,0.22,VWS V14.01,2013-07-01 04:46:00,
2013-06-30 23:47:00,68.7,58.1,29.84,NNW,335,0.0,4.0,69,0.00,,OVC070,0.22,VWS V14.01,2013-07-01 04:47:00,
2013-06-30 23:48:00,68.5,57.5,29.84,NNE,24,3.0,9.0,68,0.00,,OVC070,0.22,VWS V14.01,2013-07-01 04:48:00,
2013-06-30 23:51:00,68.5,57.5,29.84,North,10,0.0,9.0,68,0.00,,OVC070,0.22,VWS V14.01,2013-07-01 04:51:00,
2013-06-30 23:52:00,68.5,57.5,29.84,NNW,343,0.0,9.0,68,0.00,,OVC070,0.22,VWS V14.01,2013-07-01 04:52:00,
2013-06-30 23:53:00,68.5,57.1,29.84,NW,322,2.0,9.0,67,0.00,,OVC070,0.22,VWS V14.01,2013-07-01 04:53:00,
2013-06-30 23:57:00,68.5,57.1,29.84,North,5,0.0,9.0,67,0.00,,OVC070,0.22,VWS V14.01,2013-07-01 04:57:00,
2013-06-30 23:58:00,68.5,57.1,29.84,NE,35,0.0,9.0,67,0.00,,OVC070,0.22,VWS V14.01,2013-07-01 04:58:00,